| time (UTC) | temp F | wind direction | speed knots | gust knots | rain 1hr in | rain 24hr in | rain mn in | humidity % | barometer mb |
| 20260502164316 | 70 | 34 | 3.5 | 8.7 | 0.00 | 0.00 | 0.00 | 58 | 1024.0 |
| 20260502164217 | 69 | 360 | 3.5 | 8.7 | 0.00 | 0.00 | 0.00 | 58 | 1024.0 |
| 20260502164122 | 69 | 360 | 3.5 | 8.7 | 0.00 | 0.00 | 0.00 | 58 | 1024.0 |
| 20260502164022 | 69 | 360 | 3.5 | 8.7 | 0.00 | 0.00 | 0.00 | 56 | 1024.0 |
| 20260502163923 | 69 | 360 | 3.5 | 8.7 | 0.00 | 0.00 | 0.00 | 56 | 1024.1 |
| 20260502163823 | 69 | 360 | 2.6 | 8.7 | 0.00 | 0.00 | 0.00 | 56 | 1024.0 |
| 20260502163724 | 69 | 360 | 2.6 | 7.8 | 0.00 | 0.00 | 0.00 | 56 | 1024.1 |
| 20260502163624 | 70 | 37 | 3.5 | 7.8 | 0.00 | 0.00 | 0.00 | 57 | 1024.0 |
| 20260502163525 | 70 | 351 | 3.5 | 7.8 | 0.00 | 0.00 | 0.00 | 57 | 1024.0 |
| 20260502163428 | 70 | 360 | 3.5 | 7.8 | 0.00 | 0.00 | 0.00 | 57 | 1024.0 |
| 20260502163329 | 70 | 360 | 3.5 | 7.8 | 0.00 | 0.00 | 0.00 | 57 | 1024.0 |
| 20260502163230 | 69 | 360 | 3.5 | 7.8 | 0.00 | 0.00 | 0.00 | 57 | 1024.1 |
| 20260502163131 | 69 | 360 | 3.5 | 7.8 | 0.00 | 0.00 | 0.00 | 57 | 1024.1 |
| 20260502163033 | 69 | 360 | 3.5 | 7.8 | 0.00 | 0.00 | 0.00 | 57 | 1024.0 |
| 20260502162931 | 69 | 360 | 3.5 | 7.8 | 0.00 | 0.00 | 0.00 | 57 | 1024.0 |
| 20260502162831 | 70 | 360 | 3.5 | 7.8 | 0.00 | 0.00 | 0.00 | 57 | 1024.1 |
| 20260502162736 | 70 | 360 | 2.6 | 7.8 | 0.00 | 0.00 | 0.00 | 60 | 1024.0 |
| 20260502162635 | 70 | 360 | 2.6 | 7.0 | 0.00 | 0.00 | 0.00 | 59 | 1024.1 |
| 20260502162556 | 70 | 360 | 2.6 | 11.3 | 0.00 | 0.00 | 0.00 | 59 | 1024.0 |
| 20260502162435 | 70 | 360 | 2.6 | 11.3 | 0.00 | 0.00 | 0.00 | 59 | 1024.0 |
| 20260502162318 | 69 | 360 | 3.5 | 11.3 | 0.00 | 0.00 | 0.00 | 59 | 1024.0 |
| 20260502162219 | 69 | 360 | 3.5 | 11.3 | 0.00 | 0.00 | 0.00 | 61 | 1024.0 |
| 20260502162119 | 69 | 360 | 4.3 | 11.3 | 0.00 | 0.00 | 0.00 | 57 | 1024.1 |
| 20260502162024 | 69 | 360 | 3.5 | 11.3 | 0.00 | 0.00 | 0.00 | 59 | 1024.1 |
| 20260502161926 | 69 | 360 | 4.3 | 11.3 | 0.00 | 0.00 | 0.00 | 58 | 1024.1 |
| 20260502161825 | 70 | 360 | 3.5 | 11.3 | 0.00 | 0.00 | 0.00 | 58 | 1024.0 |
| 20260502161726 | 70 | 360 | 4.3 | 11.3 | 0.00 | 0.00 | 0.00 | 56 | 1024.0 |
| 20260502161626 | 70 | 360 | 3.5 | 7.8 | 0.00 | 0.00 | 0.00 | 60 | 1024.1 |
| 20260502161527 | 70 | 360 | 3.5 | 7.8 | 0.00 | 0.00 | 0.00 | 60 | 1024.0 |
| 20260502161431 | 69 | 360 | 4.3 | 7.8 | 0.00 | 0.00 | 0.00 | 60 | 1024.1 |
| 20260502161331 | 69 | 360 | 4.3 | 7.8 | 0.00 | 0.00 | 0.00 | 60 | 1024.0 |
| 20260502161232 | 68 | 360 | 4.3 | 7.8 | 0.00 | 0.00 | 0.00 | 61 | 1024.1 |
| 20260502161132 | 68 | 360 | 4.3 | 8.7 | 0.00 | 0.00 | 0.00 | 59 | 1024.1 |
| 20260502161033 | 68 | 360 | 5.2 | 8.7 | 0.00 | 0.00 | 0.00 | 60 | 1024.2 |
| 20260502160935 | 68 | 360 | 5.2 | 8.7 | 0.00 | 0.00 | 0.00 | 60 | 1024.1 |
| 20260502160819 | 68 | 360 | 4.3 | 8.7 | 0.00 | 0.00 | 0.00 | 59 | 1024.1 |
| 20260502160740 | 68 | 11 | 3.5 | 8.7 | 0.00 | 0.00 | 0.00 | 59 | 1024.1 |
| 20260502160618 | 68 | 360 | 3.5 | 8.7 | 0.00 | 0.00 | 0.00 | 59 | 1024.1 |
| 20260502160539 | 68 | 344 | 3.5 | 8.7 | 0.00 | 0.00 | 0.00 | 59 | 1024.2 |
| 20260502160419 | 68 | 360 | 3.5 | 8.7 | 0.00 | 0.00 | 0.00 | 61 | 1024.1 |
| 20260502160319 | 68 | 360 | 2.6 | 8.7 | 0.00 | 0.00 | 0.00 | 62 | 1024.2 |
| 20260502160220 | 68 | 360 | 2.6 | 8.7 | 0.00 | 0.00 | 0.00 | 62 | 1024.2 |
| 20260502160119 | 68 | 58 | 2.6 | 8.7 | 0.00 | 0.00 | 0.00 | 61 | 1024.1 |
| 20260502152315 | 0 | 0.0 | 0.0 | 0.00 | 0.00 | 0.00 | 1024.1 | ||
| 20260502152031 | 0 | 0.0 | 0.0 | 0.00 | 0.00 | 0.00 | 1024.1 | ||
| 20260502151915 | 0 | 0.0 | 0.0 | 0.00 | 0.00 | 0.00 | 1024.1 | ||
| 20260502151838 | 0 | 0.0 | 0.0 | 0.00 | 0.00 | 0.00 | 1024.1 | ||
| 20260502151715 | 0 | 0.0 | 0.0 | 0.00 | 0.00 | 0.00 | 1024.1 | ||
| 20260502151623 | 0 | 0.0 | 0.0 | 0.00 | 0.00 | 0.00 | 1024.1 | ||
| 20260502151526 | 0 | 0.0 | 0.0 | 0.00 | 0.00 | 0.00 | 1024.1 | ||
| 20260502151423 | 0 | 0.0 | 0.0 | 0.00 | 0.00 | 0.00 | 1024.1 | ||
| 20260502151327 | 0 | 0.0 | 0.0 | 0.00 | 0.00 | 0.00 | 1024.1 | ||
| 20260502151230 | 0 | 0.0 | 0.0 | 0.00 | 0.00 | 0.00 | 1024.1 | ||
| 20260502151114 | 0 | 0.0 | 0.0 | 0.00 | 0.00 | 0.00 | 1024.1 | ||
| 20260502151021 | 0 | 0.0 | 0.0 | 0.00 | 0.00 | 0.00 | 1024.0 | ||
| 20260502150924 | 0 | 0.0 | 0.0 | 0.00 | 0.00 | 0.00 | 1024.0 | ||
| 20260502150827 | 0 | 0.0 | 0.0 | 0.00 | 0.00 | 0.00 | 1024.1 | ||
| 20260502150730 | 0 | 0.0 | 0.0 | 0.00 | 0.00 | 0.00 | 1024.1 | ||
| 20260502150634 | 0 | 0.0 | 0.0 | 0.00 | 0.00 | 0.00 | 1024.0 | ||
| 20260502150517 | 0 | 0.0 | 0.0 | 0.00 | 0.00 | 0.00 | 1024.1 | ||
| 20260502150425 | 0 | 0.0 | 0.0 | 0.00 | 0.00 | 0.00 | 1024.1 | ||
| 20260502150328 | 0 | 0.0 | 0.0 | 0.00 | 0.00 | 0.00 | 1024.1 | ||
| 20260502150252 | 0 | 0.0 | 0.0 | 0.00 | 0.00 | 0.00 | 1024.0 | ||
| 20260502150113 | 0 | 0.0 | 0.0 | 0.00 | 0.00 | 0.00 | 1024.0 | ||
| 20260502140124 | 0 | 0.0 | 0.0 | 0.00 | 0.00 | 0.00 | 1023.3 | ||
| 20260502130725 | 0 | 0.0 | 0.0 | 0.00 | 0.00 | 0.00 | 1022.7 | ||
| 20260502130649 | 0 | 0.0 | 0.0 | 0.00 | 0.00 | 0.00 | 1022.7 | ||
| 20260502130532 | 0 | 0.0 | 0.0 | 0.00 | 0.00 | 0.00 | 1022.7 | ||
| 20260502130415 | 0 | 0.0 | 0.0 | 0.00 | 0.00 | 0.00 | 1022.6 | ||
| 20260502130318 | 0 | 0.0 | 0.0 | 0.00 | 0.00 | 0.00 | 1022.6 | ||
| 20260502130221 | 0 | 0.0 | 0.0 | 0.00 | 0.00 | 0.00 | 1022.6 | ||
| 20260502130144 | 0 | 0.0 | 0.0 | 0.00 | 0.00 | 0.00 | 1022.6 | ||
| 20260502123719 | 0 | 0.0 | 0.0 | 0.00 | 0.00 | 0.00 | 1022.3 | ||
| 20260502123623 | 0 | 0.0 | 0.0 | 0.00 | 0.00 | 0.00 | 1022.3 | ||
| 20260502123526 | 0 | 0.0 | 0.0 | 0.00 | 0.00 | 0.00 | 1022.3 | ||
| 20260502123429 | 0 | 0.0 | 0.0 | 0.00 | 0.00 | 0.00 | 1022.3 | ||
| 20260502123316 | 0 | 0.0 | 0.0 | 0.00 | 0.00 | 0.00 | 1022.2 | ||
| 20260502123240 | 0 | 0.0 | 0.0 | 0.00 | 0.00 | 0.00 | 1022.2 | ||
| 20260502123121 | 0 | 0.0 | 0.0 | 0.00 | 0.00 | 0.00 | 1022.2 | ||
| 20260502123025 | 0 | 0.0 | 0.0 | 0.00 | 0.00 | 0.00 | 1022.2 | ||
| 20260502122929 | 0 | 0.0 | 0.0 | 0.00 | 0.00 | 0.00 | 1022.2 | ||
| 20260502122833 | 0 | 0.0 | 0.0 | 0.00 | 0.00 | 0.00 | 1022.2 | ||
| 20260502122715 | 0 | 0.0 | 0.0 | 0.00 | 0.00 | 0.00 | 1022.1 | ||
| 20260502122621 | 0 | 0.0 | 0.0 | 0.00 | 0.00 | 0.00 | 1022.1 | ||
| 20260502122544 | 0 | 0.0 | 0.0 | 0.00 | 0.00 | 0.00 | 1022.0 | ||
| 20260502122438 | 0 | 0.0 | 0.0 | 0.00 | 0.00 | 0.00 | 1022.0 | ||
| 20260502122314 | 0 | 0.0 | 0.0 | 0.00 | 0.00 | 0.00 | 1022.0 | ||
| 20260502122216 | 0 | 0.0 | 0.0 | 0.00 | 0.00 | 0.00 | 1021.9 | ||
| 20260502122120 | 0 | 0.0 | 0.0 | 0.00 | 0.00 | 0.00 | 1021.9 | ||
| 20260502122025 | 0 | 0.0 | 0.0 | 0.00 | 0.00 | 0.00 | 1021.9 | ||
| 20260502121927 | 0 | 0.0 | 0.0 | 0.00 | 0.00 | 0.00 | 1021.9 | ||
| 20260502121814 | 0 | 0.0 | 0.0 | 0.00 | 0.00 | 0.00 | 1021.9 | ||
| 20260502121718 | 0 | 0.0 | 0.0 | 0.00 | 0.00 | 0.00 | 1021.9 | ||
| 20260502121641 | 0 | 0.0 | 0.0 | 0.00 | 0.00 | 0.00 | 1021.9 | ||
| 20260502121543 | 0 | 0.0 | 0.0 | 0.00 | 0.00 | 0.00 | 1021.9 | ||
| 20260502121425 | 0 | 0.0 | 0.0 | 0.00 | 0.00 | 0.00 | 1021.9 | ||
| 20260502121329 | 0 | 0.0 | 0.0 | 0.00 | 0.00 | 0.00 | 1021.7 | ||
| 20260502121217 | 0 | 0.0 | 0.0 | 0.00 | 0.00 | 0.00 | 1021.7 | ||
| 20260502121121 | 0 | 0.0 | 0.0 | 0.00 | 0.00 | 0.00 | 1021.7 | ||
| 20260502121024 | 0 | 0.0 | 0.0 | 0.00 | 0.00 | 0.00 | 1021.7 | ||
| 20260502120947 | 0 | 0.0 | 0.0 | 0.00 | 0.00 | 0.00 | 1021.7 | ||
| 20260502120829 | 0 | 0.0 | 0.0 | 0.00 | 0.00 | 0.00 | 1021.6 | ||
| 20260502120725 | 0 | 0.0 | 0.0 | 0.00 | 0.00 | 0.00 | 1021.6 | ||
| 20260502120628 | 0 | 0.0 | 0.0 | 0.00 | 0.00 | 0.00 | 1021.6 | ||
| 20260502120516 | 0 | 0.0 | 0.0 | 0.00 | 0.00 | 0.00 | 1021.6 | ||
| 20260502120420 | 0 | 0.0 | 0.0 | 0.00 | 0.00 | 0.00 | 1021.6 | ||
| 20260502120323 | 0 | 0.0 | 0.0 | 0.00 | 0.00 | 0.00 | 1021.6 | ||
| 20260502120225 | 0 | 0.0 | 0.0 | 0.00 | 0.00 | 0.00 | 1021.6 | ||
| 20260502120129 | 0 | 0.0 | 0.0 | 0.00 | 0.00 | 0.00 | 1021.7 | ||
| 20260502115919 | 0 | 0.0 | 0.0 | 0.00 | 0.00 | 0.00 | 1021.5 | ||
| 20260502115823 | 0 | 0.0 | 0.0 | 0.00 | 0.00 | 0.00 | 1021.5 | ||
| 20260502115727 | 0 | 0.0 | 0.0 | 0.00 | 0.00 | 0.00 | 1021.4 | ||
| 20260502115628 | 0 | 0.0 | 0.0 | 0.00 | 0.00 | 0.00 | 1021.5 | ||
| 20260502115552 | 0 | 0.0 | 0.0 | 0.00 | 0.00 | 0.00 | 1021.5 | ||
| 20260502115415 | 0 | 0.0 | 0.0 | 0.00 | 0.00 | 0.00 | 1021.4 | ||
| 20260502115319 | 0 | 0.0 | 0.0 | 0.00 | 0.00 | 0.00 | 1021.3 | ||
| 20260502115226 | 0 | 0.0 | 0.0 | 0.00 | 0.00 | 0.00 | 1021.3 | ||
| 20260502115129 | 0 | 0.0 | 0.0 | 0.00 | 0.00 | 0.00 | 1021.4 | ||
| 20260502115032 | 0 | 0.0 | 0.0 | 0.00 | 0.00 | 0.00 | 1021.5 | ||
| 20260502114914 | 0 | 0.0 | 0.0 | 0.00 | 0.00 | 0.00 | 1021.3 | ||
| 20260502114818 | 0 | 0.0 | 0.0 | 0.00 | 0.00 | 0.00 | 1021.3 | ||
| 20260502114721 | 0 | 0.0 | 0.0 | 0.00 | 0.00 | 0.00 | 1021.3 | ||
| 20260502114625 | 0 | 0.0 | 0.0 | 0.00 | 0.00 | 0.00 | 1021.3 | ||
| 20260502114321 | 0 | 0.0 | 0.0 | 0.00 | 0.00 | 0.00 | 1021.1 | ||
| 20260502114243 | 0 | 0.0 | 0.0 | 0.00 | 0.00 | 0.00 | 1021.1 | ||
| 20260502114146 | 0 | 0.0 | 0.0 | 0.00 | 0.00 | 0.00 | 1021.2 | ||
| 20260502114028 | 0 | 0.0 | 0.0 | 0.00 | 0.00 | 0.00 | 1021.1 | ||
| 20260502113915 | 0 | 0.0 | 0.0 | 0.00 | 0.00 | 0.00 | 1021.1 | ||
| 20260502113819 | 0 | 0.0 | 0.0 | 0.00 | 0.00 | 0.00 | 1021.1 | ||
| 20260502113723 | 0 | 0.0 | 0.0 | 0.00 | 0.00 | 0.00 | 1021.1 | ||
| 20260502113626 | 0 | 0.0 | 0.0 | 0.00 | 0.00 | 0.00 | 1021.1 | ||
| 20260502113531 | 0 | 0.0 | 0.0 | 0.00 | 0.00 | 0.00 | 1021.1 | ||
| 20260502113454 | 0 | 0.0 | 0.0 | 0.00 | 0.00 | 0.00 | 1021.1 | ||
| 20260502113355 | 0 | 0.0 | 0.0 | 0.00 | 0.00 | 0.00 | 1021.1 | ||
| 20260502113149 | 0 | 0.0 | 0.0 | 0.00 | 0.00 | 0.00 | 1021.1 | ||
| 20260502113035 | 0 | 0.0 | 0.0 | 0.00 | 0.00 | 0.00 | 1021.1 | ||
| 20260502112917 | 0 | 0.0 | 0.0 | 0.00 | 0.00 | 0.00 | 1021.1 | ||
| 20260502112821 | 0 | 0.0 | 0.0 | 0.00 | 0.00 | 0.00 | 1021.1 | ||
| 20260502112725 | 0 | 0.0 | 0.0 | 0.00 | 0.00 | 0.00 | 1021.0 | ||
| 20260502112627 | 0 | 0.0 | 0.0 | 0.00 | 0.00 | 0.00 | 1021.1 | ||
| 20260502112530 | 0 | 0.0 | 0.0 | 0.00 | 0.00 | 0.00 | 1021.1 | ||
| 20260502112439 | 0 | 0.0 | 0.0 | 0.00 | 0.00 | 0.00 | 1021.1 | ||
| 20260502112314 | 0 | 0.0 | 0.0 | 0.00 | 0.00 | 0.00 | 1021.1 | ||
| 20260502112238 | 0 | 0.0 | 0.0 | 0.00 | 0.00 | 0.00 | 1021.1 | ||
| 20260502112114 | 0 | 0.0 | 0.0 | 0.00 | 0.00 | 0.00 | 1021.0 | ||
| 20260502112017 | 0 | 0.0 | 0.0 | 0.00 | 0.00 | 0.00 | 1021.0 | ||
| 20260502111922 | 0 | 0.0 | 0.0 | 0.00 | 0.00 | 0.00 | 1021.0 | ||
| 20260502111828 | 0 | 0.0 | 0.0 | 0.00 | 0.00 | 0.00 | 1021.1 | ||
| 20260502111732 | 0 | 0.0 | 0.0 | 0.00 | 0.00 | 0.00 | 1021.1 | ||
| 20260502111635 | 0 | 0.0 | 0.0 | 0.00 | 0.00 | 0.00 | 1021.0 | ||
| 20260502111538 | 0 | 0.0 | 0.0 | 0.00 | 0.00 | 0.00 | 1021.0 | ||
| 20260502111413 | 0 | 0.0 | 0.0 | 0.00 | 0.00 | 0.00 | 1021.0 | ||
| 20260502111317 | 0 | 0.0 | 0.0 | 0.00 | 0.00 | 0.00 | 1021.0 | ||
| 20260502111221 | 0 | 0.0 | 0.0 | 0.00 | 0.00 | 0.00 | 1021.0 | ||
| 20260502111129 | 0 | 0.0 | 0.0 | 0.00 | 0.00 | 0.00 | 1021.0 | ||
| 20260502111052 | 0 | 0.0 | 0.0 | 0.00 | 0.00 | 0.00 | 1021.0 | ||
| 20260502110915 | 0 | 0.0 | 0.0 | 0.00 | 0.00 | 0.00 | 1021.0 | ||
| 20260502110818 | 0 | 0.0 | 0.0 | 0.00 | 0.00 | 0.00 | 1021.0 | ||
| 20260502110742 | 0 | 0.0 | 0.0 | 0.00 | 0.00 | 0.00 | 1021.0 | ||
| 20260502110624 | 0 | 0.0 | 0.0 | 0.00 | 0.00 | 0.00 | 1021.0 | ||
| 20260502110526 | 0 | 0.0 | 0.0 | 0.00 | 0.00 | 0.00 | 1021.0 | ||
| 20260502110434 | 0 | 0.0 | 0.0 | 0.00 | 0.00 | 0.00 | 1020.9 | ||
| 20260502110317 | 0 | 0.0 | 0.0 | 0.00 | 0.00 | 0.00 | 1020.9 | ||
| 20260502110221 | 0 | 0.0 | 0.0 | 0.00 | 0.00 | 0.00 | 1021.0 | ||
| 20260502110144 | 0 | 0.0 | 0.0 | 0.00 | 0.00 | 0.00 | 1021.0 | ||
| 20260502105917 | 0 | 0.0 | 0.0 | 0.00 | 0.00 | 0.00 | 1020.9 | ||
| 20260502105821 | 0 | 0.0 | 0.0 | 0.00 | 0.00 | 0.00 | 1020.9 | ||
| 20260502105729 | 0 | 0.0 | 0.0 | 0.00 | 0.00 | 0.00 | 1020.9 | ||
| 20260502105633 | 0 | 0.0 | 0.0 | 0.00 | 0.00 | 0.00 | 1020.9 | ||
| 20260502105536 | 0 | 0.0 | 0.0 | 0.00 | 0.00 | 0.00 | 1020.9 | ||
| 20260502105439 | 0 | 0.0 | 0.0 | 0.00 | 0.00 | 0.00 | 1020.9 | ||
| 20260502105316 | 0 | 0.0 | 0.0 | 0.00 | 0.00 | 0.00 | 1020.9 | ||
| 20260502105239 | 0 | 0.0 | 0.0 | 0.00 | 0.00 | 0.00 | 1020.9 | ||
| 20260502105122 | 0 | 0.0 | 0.0 | 0.00 | 0.00 | 0.00 | 1020.9 | ||
| 20260502105029 | 0 | 0.0 | 0.0 | 0.00 | 0.00 | 0.00 | 1020.8 | ||
| 20260502104953 | 0 | 0.0 | 0.0 | 0.00 | 0.00 | 0.00 | 1020.8 | ||
| 20260502104835 | 0 | 0.0 | 0.0 | 0.00 | 0.00 | 0.00 | 1020.8 | ||
| 20260502104758 | 0 | 0.0 | 0.0 | 0.00 | 0.00 | 0.00 | 1020.8 | ||
| 20260502104701 | 0 | 0.0 | 0.0 | 0.00 | 0.00 | 0.00 | 1020.8 | ||
| 20260502104516 | 0 | 0.0 | 0.0 | 0.00 | 0.00 | 0.00 | 1020.8 | ||
| 20260502104420 | 0 | 0.0 | 0.0 | 0.00 | 0.00 | 0.00 | 1020.8 | ||
| 20260502104343 | 0 | 0.0 | 0.0 | 0.00 | 0.00 | 0.00 | 1020.7 | ||
| 20260502104229 | 0 | 0.0 | 0.0 | 0.00 | 0.00 | 0.00 | 1020.7 | ||
| 20260502104133 | 0 | 0.0 | 0.0 | 0.00 | 0.00 | 0.00 | 1020.7 | ||
| 20260502104017 | 0 | 0.0 | 0.0 | 0.00 | 0.00 | 0.00 | 1020.7 | ||
| 20260502103919 | 0 | 0.0 | 0.0 | 0.00 | 0.00 | 0.00 | 1020.7 | ||
| 20260502103824 | 0 | 0.0 | 0.0 | 0.00 | 0.00 | 0.00 | 1020.7 | ||
| 20260502103727 | 0 | 0.0 | 0.0 | 0.00 | 0.00 | 0.00 | 1020.7 | ||
| 20260502103615 | 0 | 0.0 | 0.0 | 0.00 | 0.00 | 0.00 | 1020.6 | ||
| 20260502103517 | 0 | 0.0 | 0.0 | 0.00 | 0.00 | 0.00 | 1020.6 | ||
| 20260502103421 | 0 | 0.0 | 0.0 | 0.00 | 0.00 | 0.00 | 1020.6 | ||
| 20260502103346 | 0 | 0.0 | 0.0 | 0.00 | 0.00 | 0.00 | 1020.6 | ||
| 20260502103227 | 0 | 0.0 | 0.0 | 0.00 | 0.00 | 0.00 | 1020.6 | ||
| 20260502103131 | 0 | 0.0 | 0.0 | 0.00 | 0.00 | 0.00 | 1020.5 | ||
| 20260502103018 | 0 | 0.0 | 0.0 | 0.00 | 0.00 | 0.00 | 1020.5 | ||
| 20260502102941 | 0 | 0.0 | 0.0 | 0.00 | 0.00 | 0.00 | 1020.4 | ||
| 20260502102843 | 0 | 0.0 | 0.0 | 0.00 | 0.00 | 0.00 | 1020.4 | ||
| 20260502102726 | 0 | 0.0 | 0.0 | 0.00 | 0.00 | 0.00 | 1020.4 | ||
| 20260502102649 | 0 | 0.0 | 0.0 | 0.00 | 0.00 | 0.00 | 1020.4 | ||
| 20260502102423 | 0 | 0.0 | 0.0 | 0.00 | 0.00 | 0.00 | 1020.3 | ||
| 20260502102325 | 0 | 0.0 | 0.0 | 0.00 | 0.00 | 0.00 | 1020.3 | ||
| 20260502102213 | 0 | 0.0 | 0.0 | 0.00 | 0.00 | 0.00 | 1020.3 | ||
| 20260502102116 | 0 | 0.0 | 0.0 | 0.00 | 0.00 | 0.00 | 1020.2 | ||
| 20260502102039 | 0 | 0.0 | 0.0 | 0.00 | 0.00 | 0.00 | 1020.2 | ||
| 20260502101915 | 0 | 0.0 | 0.0 | 0.00 | 0.00 | 0.00 | 1020.2 | ||
| 20260502101820 | 0 | 0.0 | 0.0 | 0.00 | 0.00 | 0.00 | 1020.1 | ||
| 20260502101626 | 0 | 0.0 | 0.0 | 0.00 | 0.00 | 0.00 | 1020.1 | ||
| 20260502101534 | 0 | 0.0 | 0.0 | 0.00 | 0.00 | 0.00 | 1020.1 | ||
| 20260502101459 | 0 | 0.0 | 0.0 | 0.00 | 0.00 | 0.00 | 1020.2 | ||
| 20260502101314 | 0 | 0.0 | 0.0 | 0.00 | 0.00 | 0.00 | 1020.1 | ||
| 20260502101217 | 0 | 0.0 | 0.0 | 0.00 | 0.00 | 0.00 | 1020.1 | ||
| 20260502101121 | 0 | 0.0 | 0.0 | 0.00 | 0.00 | 0.00 | 1020.2 | ||
| 20260502101023 | 0 | 0.0 | 0.0 | 0.00 | 0.00 | 0.00 | 1020.2 | ||
| 20260502100927 | 0 | 0.0 | 0.0 | 0.00 | 0.00 | 0.00 | 1020.1 | ||
| 20260502100835 | 0 | 0.0 | 0.0 | 0.00 | 0.00 | 0.00 | 1020.1 | ||
| 20260502100737 | 0 | 0.0 | 0.0 | 0.00 | 0.00 | 0.00 | 1020.1 | ||
| 20260502100619 | 0 | 0.0 | 0.0 | 0.00 | 0.00 | 0.00 | 1020.1 | ||
| 20260502100543 | 0 | 0.0 | 0.0 | 0.00 | 0.00 | 0.00 | 1020.1 | ||
| 20260502100444 | 0 | 0.0 | 0.0 | 0.00 | 0.00 | 0.00 | 1020.1 | ||
| 20260502100327 | 0 | 0.0 | 0.0 | 0.00 | 0.00 | 0.00 | 1020.0 | ||
| 20260502100230 | 0 | 0.0 | 0.0 | 0.00 | 0.00 | 0.00 | 1020.0 | ||
| 20260502100118 | 0 | 0.0 | 0.0 | 0.00 | 0.00 | 0.00 | 1019.9 | ||
| 20260502091424 | 0 | 0.0 | 0.0 | 0.00 | 0.00 | 0.00 | 1019.4 | ||
| 20260502091327 | 0 | 0.0 | 0.0 | 0.00 | 0.00 | 0.00 | 1019.4 | ||
| 20260502091215 | 0 | 0.0 | 0.0 | 0.00 | 0.00 | 0.00 | 1019.4 | ||
| 20260502091138 | 0 | 0.0 | 0.0 | 0.00 | 0.00 | 0.00 | 1019.4 | ||
| 20260502091014 | 0 | 0.0 | 0.0 | 0.00 | 0.00 | 0.00 | 1019.4 | ||
| 20260502090917 | 0 | 0.0 | 0.0 | 0.00 | 0.00 | 0.00 | 1019.3 | ||
| 20260502090820 | 0 | 0.0 | 0.0 | 0.00 | 0.00 | 0.00 | 1019.4 | ||
| 20260502090724 | 0 | 0.0 | 0.0 | 0.00 | 0.00 | 0.00 | 1019.4 | ||
| 20260502090631 | 0 | 0.0 | 0.0 | 0.00 | 0.00 | 0.00 | 1019.4 | ||
| 20260502090535 | 0 | 0.0 | 0.0 | 0.00 | 0.00 | 0.00 | 1019.4 | ||
| 20260502090417 | 0 | 0.0 | 0.0 | 0.00 | 0.00 | 0.00 | 1019.4 | ||
| 20260502090320 | 0 | 0.0 | 0.0 | 0.00 | 0.00 | 0.00 | 1019.4 | ||
| 20260502090224 | 0 | 0.0 | 0.0 | 0.00 | 0.00 | 0.00 | 1019.4 | ||
| 20260502090129 | 0 | 0.0 | 0.0 | 0.00 | 0.00 | 0.00 | 1019.4 | ||
| 20260502071525 | 0 | 0.0 | 0.0 | 0.00 | 0.01 | 0.00 | 1019.1 | ||
| 20260502071429 | 0 | 0.0 | 0.0 | 0.00 | 0.01 | 0.00 | 1019.2 | ||
| 20260502071331 | 0 | 0.0 | 0.0 | 0.00 | 0.01 | 0.00 | 1019.2 | ||
| 20260502071215 | 0 | 0.0 | 0.0 | 0.00 | 0.01 | 0.00 | 1019.1 | ||
| 20260502071118 | 0 | 0.0 | 0.0 | 0.00 | 0.01 | 0.00 | 1019.1 | ||
| 20260502071022 | 0 | 0.0 | 0.0 | 0.00 | 0.01 | 0.00 | 1019.1 | ||
| 20260502070929 | 0 | 0.0 | 0.0 | 0.00 | 0.01 | 0.00 | 1019.2 | ||
| 20260502070832 | 0 | 0.0 | 0.0 | 0.00 | 0.01 | 0.00 | 1019.2 | ||
| 20260502070737 | 0 | 0.0 | 0.0 | 0.00 | 0.01 | 0.00 | 1019.2 | ||
| 20260502070613 | 0 | 0.0 | 0.0 | 0.00 | 0.01 | 0.00 | 1019.2 | ||
| 20260502070515 | 0 | 0.0 | 0.0 | 0.00 | 0.01 | 0.00 | 1019.2 | ||
| 20260502070418 | 0 | 0.0 | 0.0 | 0.00 | 0.01 | 0.00 | 1019.1 | ||
| 20260502070343 | 0 | 0.0 | 0.0 | 0.00 | 0.01 | 0.00 | 1019.1 | ||
| 20260502070231 | 0 | 0.0 | 0.0 | 0.00 | 0.01 | 0.00 | 1019.1 | ||
| 20260502070115 | 0 | 0.0 | 0.0 | 0.00 | 0.01 | 0.00 | 1019.0 | ||
| 20260502070040 | 0 | 0.0 | 0.0 | 0.00 | 0.01 | 0.00 | 1019.0 | ||
| 20260502065952 | 0 | 0.0 | 0.0 | 0.00 | 0.01 | 0.00 | 1019.1 | ||
| 20260502065816 | 0 | 0.0 | 0.0 | 0.00 | 0.01 | 0.00 | 1019.1 | ||
| 20260502065719 | 0 | 0.0 | 0.0 | 0.00 | 0.01 | 0.00 | 1019.0 | ||
| 20260502065627 | 0 | 0.0 | 0.0 | 0.00 | 0.01 | 0.00 | 1019.0 | ||
| 20260502065550 | 0 | 0.0 | 0.0 | 0.00 | 0.01 | 0.00 | 1019.0 | ||
| 20260502065431 | 0 | 0.0 | 0.0 | 0.00 | 0.01 | 0.00 | 1019.0 | ||
| 20260502065335 | 0 | 0.0 | 0.0 | 0.00 | 0.01 | 0.00 | 1018.9 | ||
| 20260502065219 | 0 | 0.0 | 0.0 | 0.00 | 0.01 | 0.00 | 1018.9 | ||
| 20260502065123 | 0 | 0.0 | 0.0 | 0.00 | 0.01 | 0.00 | 1018.9 | ||
| 20260502065026 | 0 | 0.0 | 0.0 | 0.00 | 0.01 | 0.00 | 1018.9 | ||
| 20260502064914 | 0 | 0.0 | 0.0 | 0.00 | 0.01 | 0.00 | 1018.9 | ||
| 20260502064837 | 0 | 0.0 | 0.0 | 0.00 | 0.01 | 0.00 | 1018.9 | ||
| 20260502064801 | 0 | 0.0 | 0.0 | 0.00 | 0.01 | 0.00 | 1019.0 | ||
| 20260502064615 | 0 | 0.0 | 0.0 | 0.00 | 0.01 | 0.00 | 1019.0 | ||
| 20260502064537 | 0 | 0.0 | 0.0 | 0.00 | 0.01 | 0.00 | 1019.0 | ||
| 20260502064414 | 0 | 0.0 | 0.0 | 0.00 | 0.01 | 0.00 | 1018.9 | ||
| 20260502064316 | 0 | 0.0 | 0.0 | 0.00 | 0.01 | 0.00 | 1019.1 | ||
| 20260502064240 | 0 | 0.0 | 0.0 | 0.00 | 0.01 | 0.00 | 1019.1 | ||
| 20260502064126 | 0 | 0.0 | 0.0 | 0.00 | 0.01 | 0.00 | 1019.1 | ||
| 20260502064030 | 0 | 0.0 | 0.0 | 0.00 | 0.01 | 0.00 | 1019.1 | ||
| 20260502063913 | 0 | 0.0 | 0.0 | 0.00 | 0.01 | 0.00 | 1019.1 | ||
| 20260502063837 | 0 | 0.0 | 0.0 | 0.00 | 0.01 | 0.00 | 1019.1 | ||
| 20260502063740 | 0 | 0.0 | 0.0 | 0.00 | 0.01 | 0.00 | 1019.1 | ||
| 20260502063623 | 0 | 0.0 | 0.0 | 0.00 | 0.01 | 0.00 | 1019.1 | ||
| 20260502063546 | 0 | 0.0 | 0.0 | 0.00 | 0.01 | 0.00 | 1019.1 | ||
| 20260502063432 | 0 | 0.0 | 0.0 | 0.00 | 0.01 | 0.00 | 1019.1 | ||
| 20260502063335 | 0 | 0.0 | 0.0 | 0.00 | 0.01 | 0.00 | 1019.1 | ||
| 20260502063259 | 0 | 0.0 | 0.0 | 0.00 | 0.01 | 0.00 | 1019.2 | ||
| 20260502063114 | 0 | 0.0 | 0.0 | 0.00 | 0.01 | 0.00 | 1019.3 | ||
| 20260502063017 | 0 | 0.0 | 0.0 | 0.00 | 0.01 | 0.00 | 1019.3 | ||
| 20260502062920 | 0 | 0.0 | 0.0 | 0.00 | 0.01 | 0.00 | 1019.2 | ||
| 20260502062824 | 0 | 0.0 | 0.0 | 0.00 | 0.01 | 0.00 | 1019.2 | ||
| 20260502062726 | 0 | 0.0 | 0.0 | 0.00 | 0.01 | 0.00 | 1019.3 | ||
| 20260502062628 | 0 | 0.0 | 0.0 | 0.00 | 0.01 | 0.00 | 1019.3 | ||
| 20260502062551 | 0 | 0.0 | 0.0 | 0.00 | 0.01 | 0.00 | 1019.2 | ||
| 20260502062415 | 0 | 0.0 | 0.0 | 0.00 | 0.01 | 0.00 | 1019.3 | ||
| 20260502062319 | 0 | 0.0 | 0.0 | 0.00 | 0.01 | 0.00 | 1019.3 | ||
| 20260502062242 | 0 | 0.0 | 0.0 | 0.00 | 0.01 | 0.00 | 1019.3 | ||
| 20260502062124 | 0 | 0.0 | 0.0 | 0.00 | 0.01 | 0.00 | 1019.3 | ||
| 20260502062030 | 0 | 0.0 | 0.0 | 0.00 | 0.01 | 0.00 | 1019.3 | ||
| 20260502061934 | 0 | 0.0 | 0.0 | 0.00 | 0.01 | 0.00 | 1019.3 | ||
| 20260502061816 | 0 | 0.0 | 0.0 | 0.00 | 0.01 | 0.00 | 1019.3 | ||
| 20260502061718 | 0 | 0.0 | 0.0 | 0.00 | 0.01 | 0.00 | 1019.3 | ||
| 20260502061622 | 0 | 0.0 | 0.0 | 0.00 | 0.01 | 0.00 | 1019.3 | ||
| 20260502061524 | 0 | 0.0 | 0.0 | 0.00 | 0.01 | 0.00 | 1019.4 | ||
| 20260502061428 | 0 | 0.0 | 0.0 | 0.00 | 0.01 | 0.00 | 1019.3 | ||
| 20260502061316 | 0 | 0.0 | 0.0 | 0.00 | 0.01 | 0.00 | 1019.4 | ||
| 20260502061239 | 0 | 0.0 | 0.0 | 0.00 | 0.01 | 0.00 | 1019.4 | ||
| 20260502061203 | 0 | 0.0 | 0.0 | 0.00 | 0.01 | 0.00 | 1019.5 | ||
| 20260502060929 | 0 | 0.0 | 0.0 | 0.00 | 0.01 | 0.00 | 1019.3 | ||
| 20260502060833 | 0 | 0.0 | 0.0 | 0.00 | 0.01 | 0.00 | 1019.4 | ||
| 20260502060736 | 0 | 0.0 | 0.0 | 0.00 | 0.01 | 0.00 | 1019.4 | ||
| 20260502060619 | 0 | 0.0 | 0.0 | 0.00 | 0.01 | 0.00 | 1019.4 | ||
| 20260502060526 | 0 | 0.0 | 0.0 | 0.00 | 0.01 | 0.00 | 1019.4 | ||
| 20260502060430 | 0 | 0.0 | 0.0 | 0.00 | 0.01 | 0.00 | 1019.4 | ||
| 20260502060313 | 0 | 0.0 | 0.0 | 0.00 | 0.01 | 0.00 | 1019.4 | ||
| 20260502060216 | 0 | 0.0 | 0.0 | 0.00 | 0.01 | 0.00 | 1019.3 | ||
| 20260502060120 | 0 | 0.0 | 0.0 | 0.00 | 0.01 | 0.00 | 1019.4 | ||
| 20260502060023 | 0 | 0.0 | 0.0 | 0.00 | 0.01 | 0.00 | 1019.4 | ||
| 20260502055930 | 0 | 0.0 | 0.0 | 0.00 | 0.01 | 0.00 | 1019.4 | ||
| 20260502055815 | 0 | 0.0 | 0.0 | 0.00 | 0.01 | 0.00 | 1019.4 | ||
| 20260502055717 | 0 | 0.0 | 0.0 | 0.00 | 0.01 | 0.01 | 1019.4 | ||
| 20260502055638 | 0 | 0.0 | 0.0 | 0.00 | 0.01 | 0.01 | 1019.4 | ||
| 20260502055540 | 0 | 0.0 | 0.0 | 0.00 | 0.01 | 0.01 | 1019.4 | ||
| 20260502055415 | 0 | 0.0 | 0.0 | 0.00 | 0.01 | 0.01 | 1019.4 | ||
| 20260502055339 | 0 | 0.0 | 0.0 | 0.00 | 0.01 | 0.01 | 1019.4 | ||
| 20260502055213 | 0 | 0.0 | 0.0 | 0.00 | 0.01 | 0.01 | 1019.3 | ||
| 20260502055116 | 0 | 0.0 | 0.0 | 0.00 | 0.01 | 0.01 | 1019.3 | ||
| 20260502055019 | 0 | 0.0 | 0.0 | 0.00 | 0.01 | 0.01 | 1019.3 | ||
| 20260502054923 | 0 | 0.0 | 0.0 | 0.00 | 0.01 | 0.01 | 1019.3 | ||
| 20260502054846 | 0 | 0.0 | 0.0 | 0.00 | 0.01 | 0.01 | 1019.4 | ||
| 20260502054749 | 0 | 0.0 | 0.0 | 0.00 | 0.01 | 0.01 | 1019.4 | ||
| 20260502054631 | 0 | 0.0 | 0.0 | 0.00 | 0.01 | 0.01 | 1019.3 | ||
| 20260502054540 | 0 | 0.0 | 0.0 | 0.00 | 0.01 | 0.01 | 1019.3 | ||
| 20260502054415 | 0 | 0.0 | 0.0 | 0.00 | 0.01 | 0.01 | 1019.3 | ||
| 20260502054339 | 0 | 0.0 | 0.0 | 0.00 | 0.01 | 0.01 | 1019.3 | ||
| 20260502054215 | 0 | 0.0 | 0.0 | 0.00 | 0.01 | 0.01 | 1019.4 | ||
| 20260502054118 | 0 | 0.0 | 0.0 | 0.00 | 0.01 | 0.01 | 1019.3 | ||
| 20260502054022 | 0 | 0.0 | 0.0 | 0.00 | 0.01 | 0.01 | 1019.3 | ||
| 20260502053929 | 0 | 0.0 | 0.0 | 0.00 | 0.01 | 0.01 | 1019.3 | ||
| 20260502053853 | 0 | 0.0 | 0.0 | 0.00 | 0.01 | 0.01 | 1019.3 | ||
| 20260502053715 | 0 | 0.0 | 0.0 | 0.00 | 0.01 | 0.01 | 1019.3 | ||
| 20260502053618 | 0 | 0.0 | 0.0 | 0.00 | 0.01 | 0.01 | 1019.2 | ||
| 20260502053515 | 0 | 0.0 | 0.0 | 0.00 | 0.01 | 0.01 | 1019.3 | ||
| 20260502053418 | 0 | 0.0 | 0.0 | 0.00 | 0.01 | 0.01 | 1019.3 | ||
| 20260502053322 | 0 | 0.0 | 0.0 | 0.00 | 0.01 | 0.01 | 1019.3 | ||
| 20260502053229 | 0 | 0.0 | 0.0 | 0.00 | 0.01 | 0.01 | 1019.3 | ||
| 20260502053113 | 0 | 0.0 | 0.0 | 0.00 | 0.01 | 0.01 | 1019.3 | ||
| 20260502053016 | 0 | 0.0 | 0.0 | 0.00 | 0.01 | 0.01 | 1019.3 | ||
| 20260502052940 | 0 | 0.0 | 0.0 | 0.00 | 0.01 | 0.01 | 1019.3 | ||
| 20260502052823 | 0 | 0.0 | 0.0 | 0.00 | 0.01 | 0.01 | 1019.3 | ||
| 20260502052727 | 0 | 0.0 | 0.0 | 0.00 | 0.01 | 0.01 | 1019.3 | ||
| 20260502052626 | 0 | 0.0 | 0.0 | 0.00 | 0.01 | 0.01 | 1019.3 | ||
| 20260502052514 | 0 | 0.0 | 0.0 | 0.00 | 0.01 | 0.01 | 1019.2 | ||
| 20260502052437 | 0 | 0.0 | 0.0 | 0.00 | 0.01 | 0.01 | 1019.2 | ||
| 20260502052313 | 0 | 0.0 | 0.0 | 0.00 | 0.01 | 0.01 | 1019.3 | ||
| 20260502052218 | 0 | 0.0 | 0.0 | 0.00 | 0.01 | 0.01 | 1019.2 | ||
| 20260502052143 | 0 | 0.0 | 0.0 | 0.00 | 0.01 | 0.01 | 1019.2 | ||
| 20260502052045 | 0 | 0.0 | 0.0 | 0.00 | 0.01 | 0.01 | 1019.2 | ||
| 20260502051927 | 0 | 0.0 | 0.0 | 0.00 | 0.01 | 0.01 | 1019.2 | ||
| 20260502051815 | 0 | 0.0 | 0.0 | 0.00 | 0.01 | 0.01 | 1019.1 | ||
| 20260502051739 | 0 | 0.0 | 0.0 | 0.00 | 0.01 | 0.01 | 1019.1 | ||
| 20260502051614 | 0 | 0.0 | 0.0 | 0.00 | 0.01 | 0.01 | 1019.1 | ||
| 20260502051517 | 0 | 0.0 | 0.0 | 0.00 | 0.01 | 0.01 | 1019.0 | ||
| 20260502051419 | 0 | 0.0 | 0.0 | 0.00 | 0.01 | 0.01 | 1019.0 | ||
| 20260502051322 | 0 | 0.0 | 0.0 | 0.00 | 0.01 | 0.01 | 1019.1 | ||
| 20260502051226 | 0 | 0.0 | 0.0 | 0.00 | 0.01 | 0.01 | 1019.1 | ||
| 20260502051113 | 0 | 0.0 | 0.0 | 0.00 | 0.01 | 0.01 | 1019.1 | ||
| 20260502051037 | 0 | 0.0 | 0.0 | 0.00 | 0.01 | 0.01 | 1019.1 | ||
| 20260502050913 | 0 | 0.0 | 0.0 | 0.00 | 0.01 | 0.01 | 1019.1 | ||
| 20260502050815 | 0 | 0.0 | 0.0 | 0.00 | 0.01 | 0.01 | 1019.0 | ||
| 20260502050739 | 0 | 0.0 | 0.0 | 0.00 | 0.01 | 0.01 | 1019.0 | ||
| 20260502050615 | 0 | 0.0 | 0.0 | 0.00 | 0.01 | 0.01 | 1019.0 | ||
| 20260502050523 | 0 | 0.0 | 0.0 | 0.00 | 0.01 | 0.01 | 1019.0 | ||
| 20260502050445 | 0 | 0.0 | 0.0 | 0.00 | 0.01 | 0.01 | 1019.1 | ||
| 20260502050219 | 0 | 0.0 | 0.0 | 0.00 | 0.01 | 0.01 | 1018.9 | ||
| 20260502050124 | 0 | 0.0 | 0.0 | 0.00 | 0.01 | 0.01 | 1018.9 | ||
| 20260502050025 | 0 | 0.0 | 0.0 | 0.00 | 0.01 | 0.01 | 1018.9 | ||
| 20260502045922 | 0 | 0.0 | 0.0 | 0.00 | 0.01 | 0.01 | 1018.9 | ||
| 20260502045828 | 0 | 0.0 | 0.0 | 0.00 | 0.01 | 0.01 | 1018.9 | ||
| 20260502045713 | 0 | 0.0 | 0.0 | 0.00 | 0.01 | 0.01 | 1018.9 | ||
| 20260502045617 | 0 | 0.0 | 0.0 | 0.00 | 0.01 | 0.01 | 1018.9 | ||
| 20260502045520 | 0 | 0.0 | 0.0 | 0.00 | 0.01 | 0.01 | 1019.0 | ||
| 20260502045424 | 0 | 0.0 | 0.0 | 0.00 | 0.01 | 0.01 | 1019.0 | ||
| 20260502045348 | 0 | 0.0 | 0.0 | 0.00 | 0.01 | 0.01 | 1018.9 | ||
| 20260502045250 | 0 | 0.0 | 0.0 | 0.00 | 0.01 | 0.01 | 1018.9 | ||
| 20260502045117 | 0 | 0.0 | 0.0 | 0.00 | 0.01 | 0.01 | 1019.0 | ||
| 20260502045020 | 0 | 0.0 | 0.0 | 0.00 | 0.01 | 0.01 | 1019.0 | ||
| 20260502044925 | 0 | 0.0 | 0.0 | 0.00 | 0.01 | 0.01 | 1019.0 | ||
| 20260502044829 | 0 | 0.0 | 0.0 | 0.00 | 0.01 | 0.01 | 1019.1 | ||
| 20260502044732 | 0 | 0.0 | 0.0 | 0.00 | 0.01 | 0.01 | 1019.0 | ||
| 20260502044635 | 0 | 0.0 | 0.0 | 0.00 | 0.01 | 0.01 | 1018.9 | ||
| 20260502044533 | 0 | 0.0 | 0.0 | 0.00 | 0.01 | 0.01 | 1019.0 | ||
| 20260502044412 | 0 | 0.0 | 0.0 | 0.00 | 0.01 | 0.01 | 1018.9 | ||
| 20260502044315 | 0 | 0.0 | 0.0 | 0.00 | 0.01 | 0.01 | 1019.0 | ||
| 20260502044218 | 0 | 0.0 | 0.0 | 0.00 | 0.01 | 0.01 | 1019.0 | ||
| 20260502044142 | 0 | 0.0 | 0.0 | 0.00 | 0.01 | 0.01 | 1018.9 | ||
| 20260502044025 | 0 | 0.0 | 0.0 | 0.00 | 0.01 | 0.01 | 1018.9 | ||
| 20260502043929 | 0 | 0.0 | 0.0 | 0.00 | 0.01 | 0.01 | 1019.1 | ||
| 20260502043816 | 0 | 0.0 | 0.0 | 0.00 | 0.01 | 0.01 | 1019.0 | ||
| 20260502043718 | 0 | 0.0 | 0.0 | 0.00 | 0.01 | 0.01 | 1019.0 | ||
| 20260502043621 | 0 | 0.0 | 0.0 | 0.00 | 0.01 | 0.01 | 1019.1 | ||
| 20260502043524 | 0 | 0.0 | 0.0 | 0.00 | 0.01 | 0.01 | 1019.1 | ||
| 20260502043425 | 0 | 0.0 | 0.0 | 0.00 | 0.01 | 0.01 | 1019.1 | ||
| 20260502043349 | 0 | 0.0 | 0.0 | 0.00 | 0.01 | 0.01 | 1019.2 | ||
| 20260502043232 | 0 | 0.0 | 0.0 | 0.00 | 0.01 | 0.01 | 1019.2 | ||
| 20260502043116 | 0 | 0.0 | 0.0 | 0.00 | 0.01 | 0.01 | 1019.2 | ||
| 20260502043024 | 0 | 0.0 | 0.0 | 0.00 | 0.01 | 0.01 | 1019.2 | ||
| 20260502042948 | 0 | 0.0 | 0.0 | 0.00 | 0.01 | 0.01 | 1019.2 | ||
| 20260502042832 | 0 | 0.0 | 0.0 | 0.00 | 0.01 | 0.01 | 1019.2 | ||
| 20260502042714 | 0 | 0.0 | 0.0 | 0.00 | 0.01 | 0.01 | 1019.2 | ||
| 20260502042617 | 0 | 0.0 | 0.0 | 0.00 | 0.01 | 0.01 | 1019.2 | ||
| 20260502042519 | 0 | 0.0 | 0.0 | 0.00 | 0.01 | 0.01 | 1019.2 | ||
| 20260502042424 | 0 | 0.0 | 0.0 | 0.00 | 0.01 | 0.01 | 1019.2 | ||
| 20260502042327 | 0 | 0.0 | 0.0 | 0.00 | 0.01 | 0.01 | 1019.3 | ||
| 20260502042235 | 0 | 0.0 | 0.0 | 0.00 | 0.01 | 0.01 | 1019.2 | ||
| 20260502042117 | 0 | 0.0 | 0.0 | 0.00 | 0.01 | 0.01 | 1019.3 | ||
| 20260502042041 | 0 | 0.0 | 0.0 | 0.00 | 0.01 | 0.01 | 1019.2 | ||
| 20260502041924 | 0 | 0.0 | 0.0 | 0.00 | 0.01 | 0.01 | 1019.2 | ||
| 20260502041827 | 0 | 0.0 | 0.0 | 0.00 | 0.01 | 0.01 | 1019.2 | ||
| 20260502041730 | 0 | 0.0 | 0.0 | 0.00 | 0.01 | 0.01 | 1019.2 | ||
| 20260502041654 | 0 | 0.0 | 0.0 | 0.00 | 0.01 | 0.01 | 1019.2 | ||
| 20260502041521 | 0 | 0.0 | 0.0 | 0.00 | 0.01 | 0.01 | 1019.2 | ||
| 20260502041424 | 0 | 0.0 | 0.0 | 0.00 | 0.01 | 0.01 | 1019.2 | ||
| 20260502041328 | 0 | 0.0 | 0.0 | 0.00 | 0.01 | 0.01 | 1019.2 | ||
| 20260502041252 | 0 | 0.0 | 0.0 | 0.00 | 0.01 | 0.01 | 1019.1 | ||
| 20260502041216 | 0 | 0.0 | 0.0 | 0.00 | 0.01 | 0.01 | 1019.2 | ||
| 20260502040949 | 0 | 0.0 | 0.0 | 0.00 | 0.01 | 0.01 | 1019.1 | ||
| 20260502040832 | 0 | 0.0 | 0.0 | 0.00 | 0.01 | 0.01 | 1019.1 | ||
| 20260502040720 | 0 | 0.0 | 0.0 | 0.00 | 0.01 | 0.01 | 1019.1 | ||
| 20260502040622 | 0 | 0.0 | 0.0 | 0.00 | 0.01 | 0.01 | 1019.1 | ||
| 20260502040525 | 0 | 0.0 | 0.0 | 0.00 | 0.01 | 0.01 | 1019.1 | ||
| 20260502040429 | 0 | 0.0 | 0.0 | 0.00 | 0.01 | 0.01 | 1019.0 | ||
| 20260502040313 | 0 | 0.0 | 0.0 | 0.00 | 0.01 | 0.01 | 1018.9 | ||
| 20260502040215 | 0 | 0.0 | 0.0 | 0.00 | 0.01 | 0.01 | 1018.9 | ||
| 20260502040124 | 0 | 0.0 | 0.0 | 0.00 | 0.01 | 0.01 | 1018.9 | ||
| 20260502040027 | 0 | 0.0 | 0.0 | 0.00 | 0.01 | 0.01 | 1018.9 | ||
| 20260502035931 | 0 | 0.0 | 0.0 | 0.00 | 0.01 | 0.01 | 1018.9 | ||
| 20260502035836 | 0 | 0.0 | 0.0 | 0.00 | 0.01 | 0.01 | 1018.9 | ||
| 20260502035717 | 0 | 0.0 | 0.0 | 0.00 | 0.02 | 0.01 | 1018.9 | ||
| 20260502035620 | 0 | 0.0 | 0.0 | 0.00 | 0.02 | 0.01 | 1018.9 | ||
| 20260502035523 | 0 | 0.0 | 0.0 | 0.00 | 0.02 | 0.01 | 1019.0 | ||
| 20260502035429 | 0 | 0.0 | 0.0 | 0.00 | 0.02 | 0.01 | 1019.0 | ||
| 20260502035332 | 0 | 0.0 | 0.0 | 0.00 | 0.02 | 0.01 | 1019.0 | ||
| 20260502035216 | 0 | 0.0 | 0.0 | 0.00 | 0.02 | 0.01 | 1019.0 | ||
| 20260502035120 | 0 | 0.0 | 0.0 | 0.00 | 0.02 | 0.01 | 1019.1 | ||
| 20260502035023 | 0 | 0.0 | 0.0 | 0.00 | 0.02 | 0.01 | 1019.1 | ||
| 20260502034926 | 0 | 0.0 | 0.0 | 0.00 | 0.02 | 0.01 | 1019.0 | ||
| 20260502034813 | 0 | 0.0 | 0.0 | 0.00 | 0.02 | 0.01 | 1019.1 | ||
| 20260502034717 | 0 | 0.0 | 0.0 | 0.00 | 0.02 | 0.01 | 1019.1 | ||
| 20260502034639 | 0 | 0.0 | 0.0 | 0.00 | 0.02 | 0.01 | 1019.1 | ||
| 20260502034523 | 0 | 0.0 | 0.0 | 0.00 | 0.02 | 0.01 | 1019.1 | ||
| 20260502034425 | 0 | 0.0 | 0.0 | 0.00 | 0.02 | 0.01 | 1019.1 | ||
| 20260502034329 | 0 | 0.0 | 0.0 | 0.00 | 0.02 | 0.01 | 1019.1 | ||
| 20260502034252 | 0 | 0.0 | 0.0 | 0.00 | 0.02 | 0.01 | 1019.1 | ||
| 20260502034118 | 0 | 0.0 | 0.0 | 0.00 | 0.02 | 0.01 | 1019.1 | ||
| 20260502034022 | 0 | 0.0 | 0.0 | 0.00 | 0.02 | 0.01 | 1019.1 | ||
| 20260502033924 | 0 | 0.0 | 0.0 | 0.00 | 0.02 | 0.01 | 1019.1 | ||
| 20260502033826 | 0 | 0.0 | 0.0 | 0.00 | 0.02 | 0.01 | 1019.1 | ||
| 20260502033723 | 0 | 0.0 | 0.0 | 0.00 | 0.02 | 0.01 | 1019.2 | ||
| 20260502033626 | 0 | 0.0 | 0.0 | 0.00 | 0.02 | 0.01 | 1019.1 | ||
| 20260502033528 | 0 | 0.0 | 0.0 | 0.00 | 0.02 | 0.01 | 1019.1 | ||
| 20260502033431 | 0 | 0.0 | 0.0 | 0.00 | 0.02 | 0.01 | 1019.1 | ||
| 20260502033318 | 0 | 0.0 | 0.0 | 0.00 | 0.02 | 0.01 | 1019.1 | ||
| 20260502033241 | 0 | 0.0 | 0.0 | 0.00 | 0.02 | 0.01 | 1019.1 | ||
| 20260502033123 | 0 | 0.0 | 0.0 | 0.00 | 0.02 | 0.01 | 1019.1 | ||
| 20260502033027 | 0 | 0.0 | 0.0 | 0.00 | 0.02 | 0.01 | 1019.2 | ||
| 20260502032928 | 0 | 0.0 | 0.0 | 0.00 | 0.02 | 0.01 | 1019.2 | ||
| 20260502032832 | 0 | 0.0 | 0.0 | 0.00 | 0.02 | 0.01 | 1019.3 | ||
| 20260502032714 | 0 | 0.0 | 0.0 | 0.00 | 0.02 | 0.01 | 1019.2 | ||
| 20260502032621 | 0 | 0.0 | 0.0 | 0.00 | 0.02 | 0.01 | 1019.3 | ||
| 20260502032525 | 0 | 0.0 | 0.0 | 0.00 | 0.02 | 0.01 | 1019.3 | ||
| 20260502032426 | 0 | 0.0 | 0.0 | 0.00 | 0.02 | 0.01 | 1019.3 | ||
| 20260502032329 | 0 | 0.0 | 0.0 | 0.00 | 0.02 | 0.01 | 1019.3 | ||
| 20260502032252 | 0 | 0.0 | 0.0 | 0.00 | 0.02 | 0.01 | 1019.2 | ||
| 20260502032216 | 0 | 0.0 | 0.0 | 0.00 | 0.02 | 0.01 | 1019.3 | ||
| 20260502031921 | 0 | 0.0 | 0.0 | 0.00 | 0.02 | 0.01 | 1019.2 | ||
| 20260502031824 | 0 | 0.0 | 0.0 | 0.00 | 0.02 | 0.01 | 1019.2 | ||
| 20260502031730 | 0 | 0.0 | 0.0 | 0.00 | 0.02 | 0.01 | 1019.2 | ||
| 20260502031653 | 0 | 0.0 | 0.0 | 0.00 | 0.02 | 0.01 | 1019.1 | ||
| 20260502031516 | 0 | 0.0 | 0.0 | 0.00 | 0.02 | 0.01 | 1019.1 | ||
| 20260502031417 | 0 | 0.0 | 0.0 | 0.00 | 0.02 | 0.01 | 1019.1 | ||
| 20260502031321 | 0 | 0.0 | 0.0 | 0.00 | 0.02 | 0.01 | 1019.1 | ||
| 20260502031224 | 0 | 0.0 | 0.0 | 0.00 | 0.02 | 0.01 | 1019.1 | ||
| 20260502031127 | 0 | 0.0 | 0.0 | 0.00 | 0.02 | 0.01 | 1019.1 | ||
| 20260502031035 | 0 | 0.0 | 0.0 | 0.00 | 0.02 | 0.01 | 1019.0 | ||
| 20260502030937 | 0 | 0.0 | 0.0 | 0.00 | 0.02 | 0.01 | 1019.0 | ||
| 20260502030813 | 0 | 0.0 | 0.0 | 0.00 | 0.02 | 0.01 | 1018.9 | ||
| 20260502030737 | 0 | 0.0 | 0.0 | 0.00 | 0.02 | 0.01 | 1018.9 | ||
| 20260502030619 | 0 | 0.0 | 0.0 | 0.00 | 0.02 | 0.01 | 1018.9 | ||
| 20260502030523 | 0 | 0.0 | 0.0 | 0.00 | 0.02 | 0.01 | 1018.9 | ||
| 20260502030425 | 0 | 0.0 | 0.0 | 0.00 | 0.02 | 0.01 | 1018.8 | ||
| 20260502030332 | 0 | 0.0 | 0.0 | 0.00 | 0.02 | 0.01 | 1018.9 | ||
| 20260502030257 | 0 | 0.0 | 0.0 | 0.00 | 0.02 | 0.01 | 1018.8 | ||
| 20260502030115 | 0 | 0.0 | 0.0 | 0.00 | 0.02 | 0.01 | 1018.8 | ||
| 20260502030018 | 0 | 0.0 | 0.0 | 0.00 | 0.02 | 0.01 | 1018.7 | ||
| 20260502025920 | 0 | 0.0 | 0.0 | 0.00 | 0.02 | 0.01 | 1018.8 | ||
| 20260502025822 | 0 | 0.0 | 0.0 | 0.00 | 0.02 | 0.01 | 1018.8 | ||
| 20260502025725 | 0 | 0.0 | 0.0 | 0.00 | 0.02 | 0.01 | 1018.7 | ||
| 20260502025626 | 0 | 0.0 | 0.0 | 0.00 | 0.03 | 0.01 | 1018.7 | ||
| 20260502025514 | 0 | 0.0 | 0.0 | 0.00 | 0.03 | 0.01 | 1018.6 | ||
| 20260502025416 | 0 | 0.0 | 0.0 | 0.00 | 0.03 | 0.01 | 1018.7 | ||
| 20260502025340 | 0 | 0.0 | 0.0 | 0.00 | 0.03 | 0.01 | 1018.7 | ||
| 20260502025215 | 0 | 0.0 | 0.0 | 0.00 | 0.03 | 0.01 | 1018.7 | ||
| 20260502025119 | 0 | 0.0 | 0.0 | 0.00 | 0.03 | 0.01 | 1018.6 | ||
| 20260502025021 | 0 | 0.0 | 0.0 | 0.00 | 0.03 | 0.01 | 1018.6 | ||
| 20260502024924 | 0 | 0.0 | 0.0 | 0.00 | 0.03 | 0.01 | 1018.6 | ||
| 20260502024813 | 0 | 0.0 | 0.0 | 0.00 | 0.03 | 0.01 | 1018.6 | ||
| 20260502024736 | 0 | 0.0 | 0.0 | 0.00 | 0.03 | 0.01 | 1018.6 | ||
| 20260502024617 | 0 | 0.0 | 0.0 | 0.00 | 0.03 | 0.01 | 1018.5 | ||
| 20260502024513 | 0 | 0.0 | 0.0 | 0.00 | 0.03 | 0.01 | 1018.5 | ||
| 20260502024437 | 0 | 0.0 | 0.0 | 0.00 | 0.03 | 0.01 | 1018.5 | ||
| 20260502024313 | 0 | 0.0 | 0.0 | 0.00 | 0.03 | 0.01 | 1018.5 | ||
| 20260502024216 | 0 | 0.0 | 0.0 | 0.00 | 0.03 | 0.01 | 1018.4 | ||
| 20260502024139 | 0 | 0.0 | 0.0 | 0.00 | 0.03 | 0.01 | 1018.5 | ||
| 20260502024025 | 0 | 0.0 | 0.0 | 0.00 | 0.03 | 0.01 | 1018.5 | ||
| 20260502023950 | 0 | 0.0 | 0.0 | 0.00 | 0.03 | 0.01 | 1018.4 | ||
| 20260502023852 | 0 | 0.0 | 0.0 | 0.00 | 0.03 | 0.01 | 1018.4 | ||
| 20260502023714 | 0 | 0.0 | 0.0 | 0.00 | 0.03 | 0.01 | 1018.4 | ||
| 20260502023618 | 0 | 0.0 | 0.0 | 0.00 | 0.03 | 0.01 | 1018.4 | ||
| 20260502023521 | 0 | 0.0 | 0.0 | 0.00 | 0.03 | 0.01 | 1018.4 | ||
| 20260502023424 | 0 | 0.0 | 0.0 | 0.00 | 0.03 | 0.01 | 1018.4 | ||
| 20260502023351 | 0 | 0.0 | 0.0 | 0.00 | 0.03 | 0.01 | 1018.4 | ||
| 20260502023215 | 0 | 0.0 | 0.0 | 0.00 | 0.03 | 0.01 | 1018.3 | ||
| 20260502023119 | 0 | 0.0 | 0.0 | 0.00 | 0.03 | 0.01 | 1018.3 | ||
| 20260502023023 | 0 | 0.0 | 0.0 | 0.00 | 0.03 | 0.01 | 1018.2 | ||
| 20260502022923 | 0 | 0.0 | 0.0 | 0.00 | 0.03 | 0.01 | 1018.2 | ||
| 20260502022824 | 0 | 0.0 | 0.0 | 0.00 | 0.03 | 0.01 | 1018.3 | ||
| 20260502022728 | 0 | 0.0 | 0.0 | 0.00 | 0.03 | 0.01 | 1018.2 | ||
| 20260502022614 | 0 | 0.0 | 0.0 | 0.00 | 0.03 | 0.01 | 1018.1 | ||
| 20260502022516 | 0 | 0.0 | 0.0 | 0.00 | 0.03 | 0.01 | 1018.1 | ||
| 20260502022417 | 0 | 0.0 | 0.0 | 0.00 | 0.03 | 0.01 | 1018.1 | ||
| 20260502022318 | 0 | 0.0 | 0.0 | 0.00 | 0.03 | 0.01 | 1018.1 | ||
| 20260502022221 | 0 | 0.0 | 0.0 | 0.00 | 0.03 | 0.01 | 1018.1 | ||
| 20260502022125 | 0 | 0.0 | 0.0 | 0.00 | 0.03 | 0.01 | 1018.1 | ||
| 20260502022026 | 0 | 0.0 | 0.0 | 0.00 | 0.03 | 0.01 | 1018.1 | ||
| 20260502021928 | 0 | 0.0 | 0.0 | 0.00 | 0.03 | 0.01 | 1018.1 | ||
| 20260502021817 | 0 | 0.0 | 0.0 | 0.00 | 0.03 | 0.01 | 1018.0 | ||
| 20260502021721 | 0 | 0.0 | 0.0 | 0.00 | 0.03 | 0.01 | 1018.0 | ||
| 20260502021621 | 0 | 0.0 | 0.0 | 0.00 | 0.03 | 0.01 | 1018.1 | ||
| 20260502021522 | 0 | 0.0 | 0.0 | 0.00 | 0.03 | 0.01 | 1018.0 | ||
| 20260502021424 | 0 | 0.0 | 0.0 | 0.00 | 0.03 | 0.01 | 1018.0 | ||
| 20260502021347 | 0 | 0.0 | 0.0 | 0.00 | 0.03 | 0.01 | 1017.9 | ||
| 20260502021222 | 0 | 0.0 | 0.0 | 0.00 | 0.03 | 0.01 | 1017.9 | ||
| 20260502021126 | 0 | 0.0 | 0.0 | 0.00 | 0.03 | 0.01 | 1017.9 | ||
| 20260502021013 | 0 | 0.0 | 0.0 | 0.00 | 0.03 | 0.01 | 1017.9 | ||
| 20260502020935 | 0 | 0.0 | 0.0 | 0.00 | 0.03 | 0.01 | 1017.9 | ||
| 20260502020817 | 0 | 0.0 | 0.0 | 0.00 | 0.03 | 0.01 | 1017.9 | ||
| 20260502020721 | 0 | 0.0 | 0.0 | 0.00 | 0.03 | 0.01 | 1018.0 | ||
| 20260502020644 | 0 | 0.0 | 0.0 | 0.00 | 0.03 | 0.01 | 1018.0 | ||
| 20260502020546 | 0 | 0.0 | 0.0 | 0.00 | 0.03 | 0.01 | 1018.0 | ||
| 20260502020426 | 0 | 0.0 | 0.0 | 0.00 | 0.03 | 0.01 | 1017.9 | ||
| 20260502020313 | 0 | 0.0 | 0.0 | 0.00 | 0.03 | 0.01 | 1018.0 | ||
| 20260502020216 | 0 | 0.0 | 0.0 | 0.00 | 0.03 | 0.01 | 1018.0 | ||
| 20260502020119 | 0 | 0.0 | 0.0 | 0.00 | 0.03 | 0.01 | 1018.0 | ||
| 20260502020019 | 0 | 0.0 | 0.0 | 0.00 | 0.03 | 0.01 | 1018.0 | ||
| 20260502015923 | 0 | 0.0 | 0.0 | 0.00 | 0.03 | 0.01 | 1018.0 | ||
| 20260502015846 | 0 | 0.0 | 0.0 | 0.00 | 0.03 | 0.01 | 1017.9 | ||
| 20260502015729 | 0 | 0.0 | 0.0 | 0.00 | 0.03 | 0.01 | 1017.9 | ||
| 20260502015651 | 0 | 0.0 | 0.0 | 0.00 | 0.03 | 0.01 | 1017.9 | ||
| 20260502015426 | 0 | 0.0 | 0.0 | 0.00 | 0.03 | 0.01 | 1017.9 | ||
| 20260502015329 | 0 | 0.0 | 0.0 | 0.00 | 0.03 | 0.01 | 1017.9 | ||
| 20260502015252 | 0 | 0.0 | 0.0 | 0.00 | 0.03 | 0.01 | 1017.8 | ||
| 20260502015115 | 0 | 0.0 | 0.0 | 0.00 | 0.03 | 0.01 | 1017.9 | ||
| 20260502015018 | 0 | 0.0 | 0.0 | 0.00 | 0.03 | 0.01 | 1017.8 | ||
| 20260502014920 | 0 | 0.0 | 0.0 | 0.00 | 0.03 | 0.01 | 1017.9 | ||
| 20260502014844 | 0 | 0.0 | 0.0 | 0.00 | 0.03 | 0.01 | 1017.9 | ||
| 20260502014730 | 0 | 0.0 | 0.0 | 0.00 | 0.03 | 0.01 | 1017.8 | ||
| 20260502014630 | 0 | 0.0 | 0.0 | 0.00 | 0.03 | 0.01 | 1017.8 | ||
| 20260502014514 | 0 | 0.0 | 0.0 | 0.00 | 0.03 | 0.01 | 1017.7 | ||
| 20260502014417 | 0 | 0.0 | 0.0 | 0.00 | 0.03 | 0.01 | 1017.6 | ||
| 20260502014320 | 0 | 0.0 | 0.0 | 0.00 | 0.03 | 0.01 | 1017.6 | ||
| 20260502014224 | 0 | 0.0 | 0.0 | 0.00 | 0.03 | 0.01 | 1017.6 | ||
| 20260502014127 | 0 | 0.0 | 0.0 | 0.00 | 0.03 | 0.01 | 1017.6 | ||
| 20260502014054 | 0 | 0.0 | 0.0 | 0.00 | 0.03 | 0.01 | 1017.6 | ||
| 20260502013915 | 0 | 0.0 | 0.0 | 0.00 | 0.03 | 0.01 | 1017.6 | ||
| 20260502013838 | 0 | 0.0 | 0.0 | 0.00 | 0.03 | 0.01 | 1017.6 | ||
| 20260502013713 | 0 | 0.0 | 0.0 | 0.00 | 0.03 | 0.01 | 1017.5 | ||
| 20260502013636 | 0 | 0.0 | 0.0 | 0.00 | 0.03 | 0.01 | 1017.5 | ||
| 20260502013536 | 0 | 0.0 | 0.0 | 0.00 | 0.03 | 0.01 | 1017.5 | ||
| 20260502013500 | 0 | 0.0 | 0.0 | 0.00 | 0.03 | 0.01 | 1017.5 | ||
| 20260502013315 | 0 | 0.0 | 0.0 | 0.00 | 0.03 | 0.01 | 1017.4 | ||
| 20260502013224 | 0 | 0.0 | 0.0 | 0.00 | 0.03 | 0.01 | 1017.4 | ||
| 20260502013126 | 0 | 0.0 | 0.0 | 0.00 | 0.03 | 0.01 | 1017.5 | ||
| 20260502013049 | 0 | 0.0 | 0.0 | 0.00 | 0.03 | 0.01 | 1017.4 | ||
| 20260502012930 | 0 | 0.0 | 0.0 | 0.00 | 0.03 | 0.01 | 1017.3 | ||
| 20260502012854 | 0 | 0.0 | 0.0 | 0.00 | 0.03 | 0.01 | 1017.3 | ||
| 20260502012735 | 0 | 0.0 | 0.0 | 0.00 | 0.03 | 0.01 | 1017.4 | ||
| 20260502012615 | 0 | 0.0 | 0.0 | 0.00 | 0.03 | 0.01 | 1017.4 | ||
| 20260502012518 | 0 | 0.0 | 0.0 | 0.00 | 0.03 | 0.01 | 1017.3 | ||
| 20260502012421 | 0 | 0.0 | 0.0 | 0.00 | 0.03 | 0.01 | 1017.3 | ||
| 20260502012328 | 0 | 0.0 | 0.0 | 0.00 | 0.03 | 0.01 | 1017.3 | ||
| 20260502012231 | 0 | 0.0 | 0.0 | 0.00 | 0.03 | 0.01 | 1017.4 | ||
| 20260502012114 | 0 | 0.0 | 0.0 | 0.00 | 0.03 | 0.01 | 1017.3 | ||
| 20260502012016 | 0 | 0.0 | 0.0 | 0.00 | 0.03 | 0.01 | 1017.2 | ||
| 20260502011921 | 0 | 0.0 | 0.0 | 0.00 | 0.03 | 0.01 | 1017.3 | ||
| 20260502011824 | 0 | 0.0 | 0.0 | 0.00 | 0.03 | 0.01 | 1017.3 | ||
| 20260502011726 | 0 | 0.0 | 0.0 | 0.00 | 0.03 | 0.01 | 1017.2 | ||
| 20260502011613 | 0 | 0.0 | 0.0 | 0.00 | 0.03 | 0.01 | 1017.2 | ||
| 20260502011537 | 0 | 0.0 | 0.0 | 0.00 | 0.03 | 0.01 | 1017.2 | ||
| 20260502011413 | 0 | 0.0 | 0.0 | 0.00 | 0.03 | 0.01 | 1017.2 | ||
| 20260502011337 | 0 | 0.0 | 0.0 | 0.00 | 0.03 | 0.01 | 1017.2 | ||
| 20260502011219 | 0 | 0.0 | 0.0 | 0.00 | 0.03 | 0.01 | 1017.2 | ||
| 20260502011123 | 0 | 0.0 | 0.0 | 0.00 | 0.03 | 0.01 | 1017.2 | ||
| 20260502011027 | 0 | 0.0 | 0.0 | 0.00 | 0.03 | 0.01 | 1017.3 | ||
| 20260502010914 | 0 | 0.0 | 0.0 | 0.00 | 0.03 | 0.01 | 1017.2 | ||
| 20260502010837 | 0 | 0.0 | 0.0 | 0.00 | 0.03 | 0.01 | 1017.2 | ||
| 20260502010719 | 0 | 0.0 | 0.0 | 0.00 | 0.03 | 0.01 | 1017.2 | ||
| 20260502010623 | 0 | 0.0 | 0.0 | 0.00 | 0.03 | 0.01 | 1017.2 | ||
| 20260502010525 | 0 | 0.0 | 0.0 | 0.00 | 0.03 | 0.01 | 1017.2 | ||
| 20260502010429 | 0 | 0.0 | 0.0 | 0.00 | 0.03 | 0.01 | 1017.2 | ||
| 20260502010337 | 0 | 0.0 | 0.0 | 0.00 | 0.03 | 0.01 | 1017.2 | ||
| 20260502010213 | 0 | 0.0 | 0.0 | 0.00 | 0.03 | 0.01 | 1017.1 | ||
| 20260502010117 | 0 | 0.0 | 0.0 | 0.00 | 0.03 | 0.01 | 1017.0 | ||
| 20260502010039 | 0 | 0.0 | 0.0 | 0.00 | 0.03 | 0.01 | 1016.9 | ||
| 20260502005922 | 0 | 0.0 | 0.0 | 0.00 | 0.03 | 0.01 | 1016.9 | ||
| 20260502005824 | 0 | 0.0 | 0.0 | 0.00 | 0.03 | 0.01 | 1016.9 | ||
| 20260502005729 | 0 | 0.0 | 0.0 | 0.00 | 0.03 | 0.01 | 1017.0 | ||
| 20260502005615 | 0 | 0.0 | 0.0 | 0.00 | 0.03 | 0.01 | 1016.9 | ||
| 20260502005539 | 0 | 0.0 | 0.0 | 0.00 | 0.03 | 0.01 | 1016.9 | ||
| 20260502005414 | 0 | 0.0 | 0.0 | 0.00 | 0.03 | 0.01 | 1016.8 | ||
| 20260502005318 | 0 | 0.0 | 0.0 | 0.00 | 0.03 | 0.01 | 1016.8 | ||
| 20260502005222 | 0 | 0.0 | 0.0 | 0.00 | 0.03 | 0.01 | 1016.8 | ||
| 20260502005125 | 0 | 0.0 | 0.0 | 0.00 | 0.03 | 0.01 | 1016.7 | ||
| 20260502005032 | 0 | 0.0 | 0.0 | 0.00 | 0.03 | 0.01 | 1016.7 | ||
| 20260502004936 | 0 | 0.0 | 0.0 | 0.00 | 0.03 | 0.01 | 1016.6 | ||
| 20260502004839 | 0 | 0.0 | 0.0 | 0.00 | 0.03 | 0.01 | 1016.6 | ||
| 20260502004737 | 0 | 0.0 | 0.0 | 0.00 | 0.03 | 0.01 | 1016.6 | ||
| 20260502004618 | 0 | 0.0 | 0.0 | 0.00 | 0.03 | 0.01 | 1016.6 | ||
| 20260502004522 | 0 | 0.0 | 0.0 | 0.00 | 0.03 | 0.01 | 1016.5 | ||
| 20260502004426 | 0 | 0.0 | 0.0 | 0.00 | 0.03 | 0.01 | 1016.5 | ||
| 20260502004313 | 0 | 0.0 | 0.0 | 0.00 | 0.03 | 0.01 | 1016.4 | ||
| 20260502004236 | 0 | 0.0 | 0.0 | 0.00 | 0.03 | 0.01 | 1016.4 | ||
| 20260502004139 | 0 | 0.0 | 0.0 | 0.00 | 0.03 | 0.01 | 1016.4 | ||
| 20260502004015 | 0 | 0.0 | 0.0 | 0.00 | 0.03 | 0.01 | 1016.4 | ||
| 20260502003920 | 0 | 0.0 | 0.0 | 0.00 | 0.03 | 0.01 | 1016.5 | ||
| 20260502003822 | 0 | 0.0 | 0.0 | 0.00 | 0.03 | 0.01 | 1016.5 | ||
| 20260502003723 | 0 | 0.0 | 0.0 | 0.00 | 0.03 | 0.01 | 1016.5 | ||
| 20260502003630 | 0 | 0.0 | 0.0 | 0.00 | 0.03 | 0.01 | 1016.4 | ||
| 20260502003514 | 0 | 0.0 | 0.0 | 0.00 | 0.03 | 0.01 | 1016.6 | ||
| 20260502003416 | 0 | 0.0 | 0.0 | 0.00 | 0.03 | 0.01 | 1016.5 | ||
| 20260502003320 | 0 | 0.0 | 0.0 | 0.00 | 0.03 | 0.01 | 1016.5 | ||
| 20260502003224 | 0 | 0.0 | 0.0 | 0.00 | 0.03 | 0.01 | 1016.5 | ||
| 20260502003127 | 0 | 0.0 | 0.0 | 0.00 | 0.03 | 0.01 | 1016.5 | ||
| 20260502003034 | 0 | 0.0 | 0.0 | 0.00 | 0.03 | 0.01 | 1016.4 | ||
| 20260502002930 | 0 | 0.0 | 0.0 | 0.00 | 0.03 | 0.01 | 1016.4 | ||
| 20260502002815 | 0 | 0.0 | 0.0 | 0.00 | 0.03 | 0.01 | 1016.4 | ||
| 20260502002716 | 0 | 0.0 | 0.0 | 0.00 | 0.03 | 0.01 | 1016.3 | ||
| 20260502002620 | 0 | 0.0 | 0.0 | 0.00 | 0.03 | 0.01 | 1016.2 | ||
| 20260502002522 | 0 | 0.0 | 0.0 | 0.00 | 0.03 | 0.01 | 1016.2 | ||
| 20260502002426 | 0 | 0.0 | 0.0 | 0.00 | 0.03 | 0.01 | 1016.1 | ||
| 20260502002354 | 0 | 0.0 | 0.0 | 0.00 | 0.03 | 0.01 | 1016.0 | ||
| 20260502002237 | 0 | 0.0 | 0.0 | 0.00 | 0.03 | 0.01 | 1016.1 | ||
| 20260502002113 | 0 | 0.0 | 0.0 | 0.00 | 0.03 | 0.01 | 1016.0 | ||
| 20260502002018 | 0 | 0.0 | 0.0 | 0.00 | 0.03 | 0.01 | 1016.0 | ||
| 20260502001922 | 0 | 0.0 | 0.0 | 0.00 | 0.03 | 0.01 | 1015.9 | ||
| 20260502001824 | 0 | 0.0 | 0.0 | 0.00 | 0.03 | 0.01 | 1015.9 | ||
| 20260502001732 | 0 | 0.0 | 0.0 | 0.00 | 0.03 | 0.01 | 1015.9 | ||
| 20260502001616 | 0 | 0.0 | 0.0 | 0.00 | 0.03 | 0.01 | 1015.9 | ||
| 20260502001519 | 0 | 0.0 | 0.0 | 0.00 | 0.03 | 0.01 | 1015.9 | ||
| 20260502001423 | 0 | 0.0 | 0.0 | 0.00 | 0.03 | 0.01 | 1015.9 | ||
| 20260502001327 | 0 | 0.0 | 0.0 | 0.00 | 0.03 | 0.01 | 1015.9 | ||
| 20260502001243 | 0 | 0.0 | 0.0 | 0.00 | 0.03 | 0.01 | 1015.9 | ||
| 20260502001146 | 0 | 0.0 | 0.0 | 0.00 | 0.03 | 0.01 | 1015.9 | ||
| 20260502001032 | 0 | 0.0 | 0.0 | 0.00 | 0.03 | 0.01 | 1015.8 | ||
| 20260502000915 | 0 | 0.0 | 0.0 | 0.00 | 0.03 | 0.01 | 1015.8 | ||
| 20260502000818 | 0 | 0.0 | 0.0 | 0.00 | 0.03 | 0.01 | 1015.7 | ||
| 20260502000721 | 0 | 0.0 | 0.0 | 0.00 | 0.03 | 0.01 | 1015.6 | ||
| 20260502000625 | 0 | 0.0 | 0.0 | 0.00 | 0.03 | 0.01 | 1015.6 | ||
| 20260502000529 | 0 | 0.0 | 0.0 | 0.00 | 0.03 | 0.01 | 1015.6 | ||
| 20260502000417 | 0 | 0.0 | 0.0 | 0.00 | 0.03 | 0.01 | 1015.5 | ||
| 20260502000320 | 0 | 0.0 | 0.0 | 0.00 | 0.03 | 0.01 | 1015.4 | ||
| 20260502000225 | 0 | 0.0 | 0.0 | 0.00 | 0.03 | 0.01 | 1015.4 | ||
| 20260502000128 | 0 | 0.0 | 0.0 | 0.00 | 0.03 | 0.01 | 1015.4 | ||
| 20260502000031 | 0 | 0.0 | 0.0 | 0.00 | 0.03 | 0.01 | 1015.4 | ||
| 20260501235914 | 0 | 0.0 | 0.0 | 0.00 | 0.03 | 0.01 | 1015.5 | ||
| 20260501235823 | 0 | 0.0 | 0.0 | 0.00 | 0.03 | 0.01 | 1015.5 | ||
| 20260501235728 | 0 | 0.0 | 0.0 | 0.00 | 0.03 | 0.01 | 1015.4 | ||
| 20260501235631 | 0 | 0.0 | 0.0 | 0.00 | 0.03 | 0.01 | 1015.5 | ||
| 20260501235535 | 0 | 0.0 | 0.0 | 0.00 | 0.03 | 0.01 | 1015.5 | ||
| 20260501235418 | 0 | 0.0 | 0.0 | 0.00 | 0.03 | 0.01 | 1015.4 | ||
| 20260501235321 | 0 | 0.0 | 0.0 | 0.00 | 0.03 | 0.01 | 1015.5 | ||
| 20260501235226 | 0 | 0.0 | 0.0 | 0.00 | 0.03 | 0.01 | 1015.5 | ||
| 20260501235131 | 0 | 0.0 | 0.0 | 0.00 | 0.03 | 0.01 | 1015.4 | ||
| 20260501235015 | 0 | 0.0 | 0.0 | 0.00 | 0.03 | 0.01 | 1015.3 | ||
| 20260501234920 | 0 | 0.0 | 0.0 | 0.00 | 0.03 | 0.01 | 1015.2 | ||
| 20260501234824 | 0 | 0.0 | 0.0 | 0.00 | 0.03 | 0.01 | 1015.2 | ||
| 20260501234727 | 0 | 0.0 | 0.0 | 0.00 | 0.03 | 0.01 | 1015.1 | ||
| 20260501234629 | 0 | 0.0 | 0.0 | 0.00 | 0.03 | 0.01 | 1015.1 | ||
| 20260501234533 | 0 | 0.0 | 0.0 | 0.00 | 0.03 | 0.01 | 1015.0 | ||
| 20260501234500 | 0 | 0.0 | 0.0 | 0.00 | 0.03 | 0.01 | 1014.8 | ||
| 20260501234314 | 0 | 0.0 | 0.0 | 0.00 | 0.03 | 0.01 | 1014.9 | ||
| 20260501234218 | 0 | 0.0 | 0.0 | 0.00 | 0.03 | 0.01 | 1014.8 | ||
| 20260501234121 | 0 | 0.0 | 0.0 | 0.00 | 0.03 | 0.01 | 1014.8 | ||
| 20260501234045 | 0 | 0.0 | 0.0 | 0.00 | 0.03 | 0.01 | 1014.8 | ||
| 20260501233915 | 0 | 0.0 | 0.0 | 0.00 | 0.03 | 0.01 | 1014.9 | ||
| 20260501233819 | 0 | 0.0 | 0.0 | 0.00 | 0.03 | 0.01 | 1015.0 | ||
| 20260501233746 | 0 | 0.0 | 0.0 | 0.00 | 0.03 | 0.01 | 1015.0 | ||
| 20260501233631 | 0 | 0.0 | 0.0 | 0.00 | 0.03 | 0.01 | 1015.0 | ||
| 20260501233514 | 0 | 0.0 | 0.0 | 0.00 | 0.03 | 0.01 | 1015.2 | ||
| 20260501233417 | 0 | 0.0 | 0.0 | 0.00 | 0.03 | 0.01 | 1015.1 | ||
| 20260501233320 | 0 | 0.0 | 0.0 | 0.00 | 0.03 | 0.01 | 1015.2 | ||
| 20260501233244 | 0 | 0.0 | 0.0 | 0.00 | 0.03 | 0.01 | 1015.2 | ||
| 20260501233126 | 0 | 0.0 | 0.0 | 0.00 | 0.03 | 0.01 | 1015.4 | ||
| 20260501233054 | 0 | 0.0 | 0.0 | 0.00 | 0.03 | 0.01 | 1015.4 | ||
| 20260501232937 | 0 | 0.0 | 0.0 | 0.00 | 0.03 | 0.01 | 1015.5 | ||
| 20260501232838 | 0 | 0.0 | 0.0 | 0.00 | 0.03 | 0.01 | 1015.5 | ||
| 20260501232740 | 0 | 0.0 | 0.0 | 0.00 | 0.03 | 0.01 | 1015.6 | ||
| 20260501232615 | 0 | 0.0 | 0.0 | 0.00 | 0.03 | 0.01 | 1015.8 | ||
| 20260501232539 | 0 | 0.0 | 0.0 | 0.00 | 0.03 | 0.01 | 1015.8 | ||
| 20260501232414 | 0 | 0.0 | 0.0 | 0.00 | 0.03 | 0.01 | 1015.8 | ||
| 20260501232321 | 0 | 0.0 | 0.0 | 0.00 | 0.03 | 0.01 | 1015.7 | ||
| 20260501232223 | 0 | 0.0 | 0.0 | 0.00 | 0.03 | 0.01 | 1015.7 | ||
| 20260501232145 | 0 | 0.0 | 0.0 | 0.00 | 0.03 | 0.01 | 1015.8 | ||
| 20260501232028 | 0 | 0.0 | 0.0 | 0.00 | 0.03 | 0.01 | 1015.6 | ||
| 20260501231931 | 0 | 0.0 | 0.0 | 0.00 | 0.03 | 0.01 | 1015.7 | ||
| 20260501231814 | 0 | 0.0 | 0.0 | 0.00 | 0.03 | 0.01 | 1015.5 | ||
| 20260501231718 | 0 | 0.0 | 0.0 | 0.00 | 0.03 | 0.01 | 1015.4 | ||
| 20260501231625 | 0 | 0.0 | 0.0 | 0.00 | 0.03 | 0.01 | 1015.4 | ||
| 20260501231528 | 0 | 0.0 | 0.0 | 0.00 | 0.03 | 0.01 | 1015.4 | ||
| 20260501231432 | 0 | 0.0 | 0.0 | 0.00 | 0.03 | 0.01 | 1015.3 | ||
| 20260501231336 | 0 | 0.0 | 0.0 | 0.00 | 0.03 | 0.01 | 1015.3 | ||
| 20260501231219 | 0 | 0.0 | 0.0 | 0.00 | 0.03 | 0.01 | 1015.4 | ||
| 20260501231143 | 0 | 0.0 | 0.0 | 0.00 | 0.03 | 0.01 | 1015.4 | ||
| 20260501231025 | 0 | 0.0 | 0.0 | 0.00 | 0.03 | 0.01 | 1015.3 | ||
| 20260501230932 | 0 | 0.0 | 0.0 | 0.00 | 0.03 | 0.01 | 1015.3 | ||
| 20260501230816 | 0 | 0.0 | 0.0 | 0.00 | 0.03 | 0.01 | 1015.1 | ||
| 20260501230720 | 0 | 0.0 | 0.0 | 0.00 | 0.03 | 0.01 | 1015.1 | ||
| 20260501230644 | 0 | 0.0 | 0.0 | 0.00 | 0.03 | 0.01 | 1015.1 | ||
| 20260501230416 | 0 | 0.0 | 0.0 | 0.00 | 0.03 | 0.01 | 1015.0 | ||
| 20260501230340 | 0 | 0.0 | 0.0 | 0.00 | 0.03 | 0.01 | 1015.0 | ||
| 20260501230222 | 0 | 0.0 | 0.0 | 0.00 | 0.03 | 0.01 | 1015.0 | ||
| 20260501230129 | 0 | 0.0 | 0.0 | 0.00 | 0.03 | 0.01 | 1015.0 | ||
| 20260501230014 | 0 | 0.0 | 0.0 | 0.00 | 0.03 | 0.01 | 1015.0 | ||
| 20260501225916 | 0 | 0.0 | 0.0 | 0.00 | 0.03 | 0.01 | 1015.0 | ||
| 20260501225820 | 0 | 0.0 | 0.0 | 0.00 | 0.03 | 0.01 | 1014.9 | ||
| 20260501225724 | 0 | 0.0 | 0.0 | 0.00 | 0.03 | 0.01 | 1014.9 | ||
| 20260501225627 | 0 | 0.0 | 0.0 | 0.00 | 0.03 | 0.01 | 1014.9 | ||
| 20260501225513 | 0 | 0.0 | 0.0 | 0.00 | 0.03 | 0.01 | 1014.9 | ||
| 20260501225437 | 0 | 0.0 | 0.0 | 0.00 | 0.03 | 0.01 | 1014.9 | ||
| 20260501225339 | 0 | 0.0 | 0.0 | 0.00 | 0.03 | 0.01 | 1014.9 | ||
| 20260501225215 | 0 | 0.0 | 0.0 | 0.00 | 0.03 | 0.01 | 1014.8 | ||
| 20260501225120 | 0 | 0.0 | 0.0 | 0.00 | 0.03 | 0.01 | 1014.8 | ||
| 20260501225023 | 0 | 0.0 | 0.0 | 0.00 | 0.03 | 0.01 | 1014.8 | ||
| 20260501224947 | 0 | 0.0 | 0.0 | 0.00 | 0.03 | 0.01 | 1014.8 | ||
| 20260501224853 | 0 | 0.0 | 0.0 | 0.00 | 0.03 | 0.01 | 1014.7 | ||
| 20260501224626 | 0 | 0.0 | 0.0 | 0.00 | 0.03 | 0.01 | 1014.6 | ||
| 20260501224551 | 0 | 0.0 | 0.0 | 0.00 | 0.03 | 0.01 | 1014.6 | ||
| 20260501224432 | 0 | 0.0 | 0.0 | 0.00 | 0.03 | 0.01 | 1014.7 | ||
| 20260501224316 | 0 | 0.0 | 0.0 | 0.00 | 0.03 | 0.01 | 1014.7 | ||
| 20260501224220 | 0 | 0.0 | 0.0 | 0.00 | 0.03 | 0.01 | 1014.7 | ||
| 20260501224127 | 0 | 0.0 | 0.0 | 0.00 | 0.03 | 0.01 | 1014.7 | ||
| 20260501224030 | 0 | 0.0 | 0.0 | 0.00 | 0.03 | 0.01 | 1014.8 | ||
| 20260501223913 | 0 | 0.0 | 0.0 | 0.00 | 0.03 | 0.01 | 1015.0 | ||
| 20260501223817 | 0 | 0.0 | 0.0 | 0.00 | 0.03 | 0.01 | 1015.1 | ||
| 20260501223719 | 0 | 0.0 | 0.0 | 0.00 | 0.03 | 0.01 | 1015.1 | ||
| 20260501223621 | 0 | 0.0 | 0.0 | 0.00 | 0.03 | 0.01 | 1015.1 | ||
| 20260501223528 | 0 | 0.0 | 0.0 | 0.00 | 0.03 | 0.01 | 1015.1 | ||
| 20260501223431 | 0 | 0.0 | 0.0 | 0.00 | 0.03 | 0.01 | 1015.2 | ||
| 20260501223334 | 0 | 0.0 | 0.0 | 0.00 | 0.03 | 0.01 | 1015.1 | ||
| 20260501223258 | 0 | 0.0 | 0.0 | 0.00 | 0.03 | 0.01 | 1015.1 | ||
| 20260501223222 | 0 | 0.0 | 0.0 | 0.00 | 0.03 | 0.01 | 1015.1 | ||
| 20260501222931 | 0 | 0.0 | 0.0 | 0.00 | 0.03 | 0.01 | 1015.1 | ||
| 20260501222817 | 0 | 0.0 | 0.0 | 0.00 | 0.03 | 0.01 | 1015.0 | ||
| 20260501222739 | 0 | 0.0 | 0.0 | 0.00 | 0.03 | 0.01 | 1014.9 | ||
| 20260501222641 | 0 | 0.0 | 0.0 | 0.00 | 0.03 | 0.01 | 1015.0 | ||
| 20260501222528 | 0 | 0.0 | 0.0 | 0.00 | 0.03 | 0.01 | 1015.0 | ||
| 20260501222451 | 0 | 0.0 | 0.0 | 0.00 | 0.03 | 0.01 | 1014.8 | ||
| 20260501222333 | 0 | 0.0 | 0.0 | 0.00 | 0.03 | 0.01 | 1014.8 | ||
| 20260501222216 | 0 | 0.0 | 0.0 | 0.00 | 0.03 | 0.01 | 1014.9 | ||
| 20260501222120 | 0 | 0.0 | 0.0 | 0.00 | 0.03 | 0.01 | 1014.8 | ||
| 20260501222023 | 0 | 0.0 | 0.0 | 0.00 | 0.03 | 0.01 | 1014.8 | ||
| 20260501221946 | 0 | 0.0 | 0.0 | 0.00 | 0.03 | 0.01 | 1014.8 | ||
| 20260501221813 | 0 | 0.0 | 0.0 | 0.00 | 0.03 | 0.01 | 1014.7 | ||
| 20260501221716 | 0 | 0.0 | 0.0 | 0.00 | 0.03 | 0.01 | 1014.6 | ||
| 20260501221618 | 0 | 0.0 | 0.0 | 0.00 | 0.03 | 0.01 | 1014.6 | ||
| 20260501221523 | 0 | 0.0 | 0.0 | 0.00 | 0.03 | 0.01 | 1014.6 | ||
| 20260501221426 | 0 | 0.0 | 0.0 | 0.00 | 0.03 | 0.01 | 1014.4 | ||
| 20260501221330 | 0 | 0.0 | 0.0 | 0.00 | 0.03 | 0.01 | 1014.3 | ||
| 20260501221234 | 0 | 0.0 | 0.0 | 0.00 | 0.03 | 0.01 | 1014.2 | ||
| 20260501221121 | 0 | 0.0 | 0.0 | 0.00 | 0.03 | 0.01 | 1014.3 | ||
| 20260501221023 | 0 | 0.0 | 0.0 | 0.00 | 0.03 | 0.01 | 1014.3 | ||
| 20260501220927 | 0 | 0.0 | 0.0 | 0.00 | 0.03 | 0.01 | 1014.3 | ||
| 20260501220851 | 0 | 0.0 | 0.0 | 0.00 | 0.03 | 0.01 | 1014.3 | ||
| 20260501220714 | 0 | 0.0 | 0.0 | 0.00 | 0.03 | 0.01 | 1014.3 | ||
| 20260501220615 | 0 | 0.0 | 0.0 | 0.00 | 0.03 | 0.01 | 1014.3 | ||
| 20260501220518 | 0 | 0.0 | 0.0 | 0.00 | 0.03 | 0.01 | 1014.4 | ||
| 20260501220427 | 0 | 0.0 | 0.0 | 0.00 | 0.03 | 0.01 | 1014.4 | ||
| 20260501220350 | 0 | 0.0 | 0.0 | 0.00 | 0.03 | 0.01 | 1014.4 | ||
| 20260501220232 | 0 | 0.0 | 0.0 | 0.00 | 0.03 | 0.01 | 1014.3 | ||
| 20260501220117 | 0 | 0.0 | 0.0 | 0.00 | 0.03 | 0.01 | 1014.6 | ||
| 20260501220019 | 0 | 0.0 | 0.0 | 0.00 | 0.03 | 0.01 | 1014.7 | ||
| 20260501215943 | 0 | 0.0 | 0.0 | 0.00 | 0.03 | 0.01 | 1014.7 | ||
| 20260501215738 | 0 | 0.0 | 0.0 | 0.00 | 0.03 | 0.01 | 1014.8 | ||
| 20260501215624 | 0 | 0.0 | 0.0 | 0.00 | 0.03 | 0.01 | 1014.8 | ||
| 20260501215527 | 0 | 0.0 | 0.0 | 0.00 | 0.03 | 0.01 | 1014.9 | ||
| 20260501215430 | 0 | 0.0 | 0.0 | 0.00 | 0.03 | 0.01 | 1014.8 | ||
| 20260501215314 | 0 | 0.0 | 0.0 | 0.00 | 0.03 | 0.01 | 1014.9 | ||
| 20260501215237 | 0 | 0.0 | 0.0 | 0.00 | 0.03 | 0.01 | 1014.8 | ||
| 20260501215140 | 0 | 0.0 | 0.0 | 0.00 | 0.03 | 0.01 | 1014.8 | ||
| 20260501215041 | 0 | 0.0 | 0.0 | 0.00 | 0.03 | 0.01 | 1014.9 | ||
| 20260501214944 | 0 | 0.0 | 0.0 | 0.00 | 0.03 | 0.01 | 1014.9 | ||
| 20260501214831 | 0 | 0.0 | 0.0 | 0.00 | 0.03 | 0.01 | 1014.7 | ||
| 20260501214714 | 0 | 0.0 | 0.0 | 0.00 | 0.03 | 0.01 | 1014.7 | ||
| 20260501214637 | 0 | 0.0 | 0.0 | 0.00 | 0.03 | 0.01 | 1014.7 | ||
| 20260501214513 | 0 | 0.0 | 0.0 | 0.00 | 0.03 | 0.01 | 1014.6 | ||
| 20260501214417 | 0 | 0.0 | 0.0 | 0.00 | 0.03 | 0.01 | 1014.6 | ||
| 20260501214321 | 0 | 0.0 | 0.0 | 0.00 | 0.03 | 0.01 | 1014.6 | ||
| 20260501214248 | 0 | 0.0 | 0.0 | 0.00 | 0.03 | 0.01 | 1014.6 | ||
| 20260501214131 | 0 | 0.0 | 0.0 | 0.00 | 0.03 | 0.01 | 1014.5 | ||
| 20260501214033 | 0 | 0.0 | 0.0 | 0.00 | 0.03 | 0.01 | 1014.4 | ||
| 20260501213920 | 0 | 0.0 | 0.0 | 0.00 | 0.03 | 0.01 | 1014.4 | ||
| 20260501213824 | 0 | 0.0 | 0.0 | 0.00 | 0.03 | 0.01 | 1014.4 | ||
| 20260501213727 | 0 | 0.0 | 0.0 | 0.00 | 0.03 | 0.01 | 1014.3 | ||
| 20260501213628 | 0 | 0.0 | 0.0 | 0.00 | 0.03 | 0.01 | 1014.1 | ||
| 20260501213530 | 0 | 0.0 | 0.0 | 0.00 | 0.03 | 0.01 | 1014.1 | ||
| 20260501213417 | 0 | 0.0 | 0.0 | 0.00 | 0.03 | 0.01 | 1014.0 | ||
| 20260501213321 | 0 | 0.0 | 0.0 | 0.00 | 0.03 | 0.01 | 1014.0 | ||
| 20260501213224 | 0 | 0.0 | 0.0 | 0.00 | 0.03 | 0.01 | 1014.0 | ||
| 20260501213128 | 0 | 0.0 | 0.0 | 0.00 | 0.03 | 0.01 | 1013.9 | ||
| 20260501213013 | 0 | 0.0 | 0.0 | 0.00 | 0.03 | 0.01 | 1014.0 | ||
| 20260501212917 | 0 | 0.0 | 0.0 | 0.00 | 0.03 | 0.01 | 1014.0 | ||
| 20260501212825 | 0 | 0.0 | 0.0 | 0.00 | 0.03 | 0.01 | 1014.0 | ||
| 20260501212730 | 0 | 0.0 | 0.0 | 0.00 | 0.03 | 0.01 | 1014.1 | ||
| 20260501212630 | 0 | 0.0 | 0.0 | 0.00 | 0.03 | 0.01 | 1014.2 | ||
| 20260501212535 | 0 | 0.0 | 0.0 | 0.00 | 0.03 | 0.01 | 1014.4 | ||
| 20260501212436 | 0 | 0.0 | 0.0 | 0.00 | 0.03 | 0.01 | 1014.4 | ||
| 20260501212400 | 0 | 0.0 | 0.0 | 0.00 | 0.03 | 0.01 | 1014.4 | ||
| 20260501212132 | 0 | 0.0 | 0.0 | 0.00 | 0.03 | 0.01 | 1014.6 | ||
| 20260501212019 | 0 | 0.0 | 0.0 | 0.00 | 0.03 | 0.01 | 1014.5 | ||
| 20260501211923 | 0 | 0.0 | 0.0 | 0.00 | 0.03 | 0.01 | 1014.5 | ||
| 20260501211826 | 0 | 0.0 | 0.0 | 0.00 | 0.03 | 0.01 | 1014.5 | ||
| 20260501211730 | 0 | 0.0 | 0.0 | 0.00 | 0.03 | 0.01 | 1014.5 | ||
| 20260501211614 | 0 | 0.0 | 0.0 | 0.00 | 0.03 | 0.01 | 1014.3 | ||
| 20260501211516 | 0 | 0.0 | 0.0 | 0.00 | 0.03 | 0.01 | 1014.1 | ||
| 20260501211441 | 0 | 0.0 | 0.0 | 0.00 | 0.03 | 0.01 | 1014.1 | ||
| 20260501211326 | 0 | 0.0 | 0.0 | 0.00 | 0.03 | 0.01 | 1014.1 | ||
| 20260501211230 | 0 | 0.0 | 0.0 | 0.00 | 0.03 | 0.01 | 1014.0 | ||
| 20260501211133 | 0 | 0.0 | 0.0 | 0.00 | 0.03 | 0.01 | 1014.0 | ||
| 20260501211016 | 0 | 0.0 | 0.0 | 0.00 | 0.03 | 0.01 | 1014.0 | ||
| 20260501210919 | 0 | 0.0 | 0.0 | 0.00 | 0.03 | 0.01 | 1013.8 | ||
| 20260501210822 | 0 | 0.0 | 0.0 | 0.00 | 0.03 | 0.01 | 1013.8 | ||
| 20260501210730 | 0 | 0.0 | 0.0 | 0.00 | 0.03 | 0.01 | 1013.9 | ||
| 20260501210653 | 0 | 0.0 | 0.0 | 0.00 | 0.03 | 0.01 | 1013.9 | ||
| 20260501210535 | 0 | 0.0 | 0.0 | 0.00 | 0.03 | 0.01 | 1013.9 | ||
| 20260501210430 | 0 | 0.0 | 0.0 | 0.00 | 0.03 | 0.01 | 1014.0 | ||
| 20260501210314 | 0 | 0.0 | 0.0 | 0.00 | 0.03 | 0.01 | 1013.9 | ||
| 20260501210217 | 0 | 0.0 | 0.0 | 0.00 | 0.03 | 0.01 | 1013.8 | ||
| 20260501210119 | 0 | 0.0 | 0.0 | 0.00 | 0.03 | 0.01 | 1013.8 | ||
| 20260501210043 | 0 | 0.0 | 0.0 | 0.00 | 0.03 | 0.01 | 1013.7 | ||
| 20260501205929 | 0 | 0.0 | 0.0 | 0.00 | 0.03 | 0.01 | 1013.7 | ||
| 20260501205833 | 0 | 0.0 | 0.0 | 0.00 | 0.03 | 0.01 | 1013.5 | ||
| 20260501205714 | 0 | 0.0 | 0.0 | 0.00 | 0.03 | 0.01 | 1013.4 | ||
| 20260501205617 | 0 | 0.0 | 0.0 | 0.00 | 0.03 | 0.01 | 1013.4 | ||
| 20260501205520 | 0 | 0.0 | 0.0 | 0.00 | 0.03 | 0.01 | 1013.3 | ||
| 20260501205423 | 0 | 0.0 | 0.0 | 0.00 | 0.03 | 0.01 | 1013.3 | ||
| 20260501205331 | 0 | 0.0 | 0.0 | 0.00 | 0.03 | 0.01 | 1013.3 | ||
| 20260501205215 | 0 | 0.0 | 0.0 | 0.00 | 0.03 | 0.01 | 1013.2 | ||
| 20260501205118 | 0 | 0.0 | 0.0 | 0.00 | 0.03 | 0.01 | 1013.2 | ||
| 20260501205021 | 0 | 0.0 | 0.0 | 0.00 | 0.03 | 0.01 | 1013.2 | ||
| 20260501204925 | 0 | 0.0 | 0.0 | 0.00 | 0.03 | 0.01 | 1013.2 | ||
| 20260501204827 | 0 | 0.0 | 0.0 | 0.00 | 0.03 | 0.01 | 1013.2 | ||
| 20260501204714 | 0 | 0.0 | 0.0 | 0.00 | 0.03 | 0.01 | 1013.4 | ||
| 20260501204638 | 0 | 0.0 | 0.0 | 0.00 | 0.03 | 0.01 | 1013.4 | ||
| 20260501204515 | 0 | 0.0 | 0.0 | 0.00 | 0.03 | 0.01 | 1013.5 | ||
| 20260501204419 | 0 | 0.0 | 0.0 | 0.00 | 0.03 | 0.01 | 1013.5 | ||
| 20260501204322 | 0 | 0.0 | 0.0 | 0.00 | 0.03 | 0.01 | 1013.4 | ||
| 20260501204225 | 0 | 0.0 | 0.0 | 0.00 | 0.03 | 0.01 | 1013.4 | ||
| 20260501204113 | 0 | 0.0 | 0.0 | 0.00 | 0.03 | 0.01 | 1013.4 | ||
| 20260501204017 | 0 | 0.0 | 0.0 | 0.00 | 0.03 | 0.01 | 1013.3 | ||
| 20260501203920 | 0 | 0.0 | 0.0 | 0.00 | 0.03 | 0.01 | 1013.4 | ||
| 20260501203823 | 0 | 0.0 | 0.0 | 0.00 | 0.03 | 0.01 | 1013.4 | ||
| 20260501203726 | 0 | 0.0 | 0.0 | 0.00 | 0.03 | 0.01 | 1013.4 | ||
| 20260501203630 | 0 | 0.0 | 0.0 | 0.00 | 0.03 | 0.01 | 1013.5 | ||
| 20260501203518 | 0 | 0.0 | 0.0 | 0.00 | 0.03 | 0.01 | 1013.4 | ||
| 20260501203422 | 0 | 0.0 | 0.0 | 0.00 | 0.03 | 0.01 | 1013.4 | ||
| 20260501203325 | 0 | 0.0 | 0.0 | 0.00 | 0.03 | 0.01 | 1013.3 | ||
| 20260501203222 | 0 | 0.0 | 0.0 | 0.00 | 0.03 | 0.01 | 1013.2 | ||
| 20260501203125 | 0 | 0.0 | 0.0 | 0.00 | 0.03 | 0.01 | 1012.9 | ||
| 20260501203029 | 0 | 0.0 | 0.0 | 0.00 | 0.03 | 0.01 | 1012.7 | ||
| 20260501202952 | 0 | 0.0 | 0.0 | 0.00 | 0.03 | 0.01 | 1012.4 | ||
| 20260501202839 | 0 | 0.0 | 0.0 | 0.00 | 0.03 | 0.01 | 1012.3 | ||
| 20260501202715 | 0 | 0.0 | 0.0 | 0.00 | 0.03 | 0.01 | 1012.4 | ||
| 20260501202619 | 0 | 0.0 | 0.0 | 0.00 | 0.03 | 0.01 | 1012.5 | ||
| 20260501202522 | 0 | 0.0 | 0.0 | 0.00 | 0.03 | 0.01 | 1012.6 | ||
| 20260501202424 | 0 | 0.0 | 0.0 | 0.00 | 0.03 | 0.01 | 1012.6 | ||
| 20260501202326 | 0 | 0.0 | 0.0 | 0.00 | 0.03 | 0.01 | 1012.8 | ||
| 20260501202214 | 0 | 0.0 | 0.0 | 0.00 | 0.03 | 0.01 | 1013.2 | ||
| 20260501202117 | 0 | 0.0 | 0.0 | 0.00 | 0.03 | 0.01 | 1013.2 | ||
| 20260501202021 | 0 | 0.0 | 0.0 | 0.00 | 0.03 | 0.01 | 1013.1 | ||
| 20260501201924 | 0 | 0.0 | 0.0 | 0.00 | 0.03 | 0.01 | 1013.1 | ||
| 20260501201847 | 0 | 0.0 | 0.0 | 0.00 | 0.03 | 0.01 | 1013.2 | ||
| 20260501201730 | 0 | 0.0 | 0.0 | 0.00 | 0.03 | 0.01 | 1013.4 | ||
| 20260501201633 | 0 | 0.0 | 0.0 | 0.00 | 0.03 | 0.01 | 1013.4 | ||
| 20260501201533 | 0 | 0.0 | 0.0 | 0.00 | 0.03 | 0.01 | 1013.4 | ||
| 20260501201444 | 0 | 0.0 | 0.0 | 0.00 | 0.03 | 0.01 | 1013.4 | ||
| 20260501201326 | 0 | 0.0 | 0.0 | 0.00 | 0.03 | 0.01 | 1013.2 | ||
| 20260501201229 | 0 | 0.0 | 0.0 | 0.00 | 0.03 | 0.01 | 1013.1 | ||
| 20260501201132 | 0 | 0.0 | 0.0 | 0.00 | 0.03 | 0.01 | 1013.0 | ||
| 20260501201035 | 0 | 0.0 | 0.0 | 0.00 | 0.03 | 0.01 | 1012.6 | ||
| 20260501200937 | 0 | 0.0 | 0.0 | 0.00 | 0.03 | 0.01 | 1012.4 | ||
| 20260501200819 | 0 | 0.0 | 0.0 | 0.00 | 0.03 | 0.01 | 1012.3 | ||
| 20260501200726 | 0 | 0.0 | 0.0 | 0.00 | 0.03 | 0.01 | 1012.3 | ||
| 20260501200630 | 0 | 0.0 | 0.0 | 0.00 | 0.03 | 0.01 | 1012.3 | ||
| 20260501200514 | 0 | 0.0 | 0.0 | 0.00 | 0.03 | 0.01 | 1012.2 | ||
| 20260501200416 | 0 | 0.0 | 0.0 | 0.00 | 0.03 | 0.01 | 1012.2 | ||
| 20260501200339 | 0 | 0.0 | 0.0 | 0.00 | 0.03 | 0.01 | 1012.2 | ||
| 20260501200215 | 0 | 0.0 | 0.0 | 0.00 | 0.03 | 0.01 | 1012.2 | ||
| 20260501200122 | 0 | 0.0 | 0.0 | 0.00 | 0.03 | 0.01 | 1012.2 | ||
| 20260501200026 | 0 | 0.0 | 0.0 | 0.00 | 0.03 | 0.01 | 1012.3 | ||
| 20260501195949 | 0 | 0.0 | 0.0 | 0.00 | 0.03 | 0.01 | 1012.3 | ||
| 20260501195853 | 0 | 0.0 | 0.0 | 0.00 | 0.03 | 0.01 | 1012.3 | ||
| 20260501195626 | 0 | 0.0 | 0.0 | 0.00 | 0.13 | 0.01 | 1012.2 | ||
| 20260501195549 | 0 | 0.0 | 0.0 | 0.00 | 0.13 | 0.01 | 1012.1 | ||
| 20260501195432 | 0 | 0.0 | 0.0 | 0.00 | 0.13 | 0.01 | 1012.1 | ||
| 20260501195319 | 0 | 0.0 | 0.0 | 0.00 | 0.13 | 0.01 | 1012.2 | ||
| 20260501195223 | 0 | 0.0 | 0.0 | 0.00 | 0.13 | 0.01 | 1012.2 | ||
| 20260501195126 | 0 | 0.0 | 0.0 | 0.00 | 0.13 | 0.01 | 1012.3 | ||
| 20260501195030 | 0 | 0.0 | 0.0 | 0.00 | 0.13 | 0.01 | 1012.4 | ||
| 20260501194933 | 0 | 0.0 | 0.0 | 0.00 | 0.13 | 0.01 | 1012.6 | ||
| 20260501194817 | 0 | 0.0 | 0.0 | 0.00 | 0.13 | 0.01 | 1012.5 | ||
| 20260501194723 | 0 | 0.0 | 0.0 | 0.00 | 0.13 | 0.01 | 1012.5 | ||
| 20260501194648 | 0 | 0.0 | 0.0 | 0.00 | 0.13 | 0.01 | 1012.5 | ||
| 20260501194550 | 0 | 0.0 | 0.0 | 0.00 | 0.13 | 0.01 | 1012.6 | ||
| 20260501194432 | 0 | 0.0 | 0.0 | 0.00 | 0.13 | 0.01 | 1012.7 | ||
| 20260501194314 | 0 | 0.0 | 0.0 | 0.00 | 0.13 | 0.01 | 1012.8 | ||
| 20260501194217 | 0 | 0.0 | 0.0 | 0.00 | 0.13 | 0.01 | 1012.9 | ||
| 20260501194120 | 0 | 0.0 | 0.0 | 0.00 | 0.13 | 0.01 | 1012.9 | ||
| 20260501194020 | 0 | 0.0 | 0.0 | 0.00 | 0.13 | 0.01 | 1013.1 | ||
| 20260501193924 | 0 | 0.0 | 0.0 | 0.00 | 0.13 | 0.01 | 1013.1 | ||
| 20260501193831 | 0 | 0.0 | 0.0 | 0.00 | 0.13 | 0.01 | 1013.1 | ||
| 20260501193714 | 0 | 0.0 | 0.0 | 0.00 | 0.13 | 0.01 | 1013.2 | ||
| 20260501193618 | 0 | 0.0 | 0.0 | 0.00 | 0.13 | 0.01 | 1013.2 | ||
| 20260501193521 | 0 | 0.0 | 0.0 | 0.00 | 0.13 | 0.01 | 1013.2 | ||
| 20260501193445 | 0 | 0.0 | 0.0 | 0.00 | 0.13 | 0.01 | 1013.2 | ||
| 20260501193328 | 0 | 0.0 | 0.0 | 0.00 | 0.13 | 0.01 | 1013.1 | ||
| 20260501193214 | 0 | 0.0 | 0.0 | 0.00 | 0.13 | 0.01 | 1013.1 | ||
| 20260501193139 | 0 | 0.0 | 0.0 | 0.00 | 0.13 | 0.01 | 1013.1 | ||
| 20260501193014 | 0 | 0.0 | 0.0 | 0.00 | 0.13 | 0.01 | 1013.1 | ||
| 20260501192938 | 0 | 0.0 | 0.0 | 0.00 | 0.13 | 0.01 | 1013.1 | ||
| 20260501192901 | 0 | 0.0 | 0.0 | 0.00 | 0.13 | 0.01 | 1013.2 | ||
| 20260501192805 | 0 | 0.0 | 0.0 | 0.00 | 0.13 | 0.01 | 1013.4 | ||
| 20260501192644 | 0 | 0.0 | 0.0 | 0.00 | 0.13 | 0.01 | 1013.5 | ||
| 20260501192439 | 0 | 0.0 | 0.0 | 0.00 | 0.13 | 0.01 | 1013.8 | ||
| 20260501192324 | 0 | 0.0 | 0.0 | 0.00 | 0.13 | 0.01 | 1013.8 | ||
| 20260501192249 | 0 | 0.0 | 0.0 | 0.00 | 0.13 | 0.01 | 1013.8 | ||
| 20260501192130 | 0 | 0.0 | 0.0 | 0.00 | 0.13 | 0.01 | 1013.9 | ||
| 20260501192053 | 0 | 0.0 | 0.0 | 0.00 | 0.13 | 0.01 | 1013.8 | ||
| 20260501191936 | 0 | 0.0 | 0.0 | 0.00 | 0.13 | 0.01 | 1013.8 | ||
| 20260501191813 | 0 | 0.0 | 0.0 | 0.00 | 0.13 | 0.01 | 1013.7 | ||
| 20260501191715 | 0 | 0.0 | 0.0 | 0.00 | 0.13 | 0.01 | 1013.7 | ||
| 20260501191639 | 0 | 0.0 | 0.0 | 0.00 | 0.13 | 0.01 | 1013.8 | ||
| 20260501191525 | 0 | 0.0 | 0.0 | 0.00 | 0.13 | 0.01 | 1013.8 | ||
| 20260501191428 | 0 | 0.0 | 0.0 | 0.00 | 0.13 | 0.01 | 1013.8 | ||
| 20260501191313 | 0 | 0.0 | 0.0 | 0.00 | 0.13 | 0.01 | 1013.9 | ||
| 20260501191215 | 0 | 0.0 | 0.0 | 0.00 | 0.13 | 0.01 | 1014.0 | ||
| 20260501191117 | 0 | 0.0 | 0.0 | 0.00 | 0.13 | 0.01 | 1014.1 | ||
| 20260501191021 | 0 | 0.0 | 0.0 | 0.00 | 0.13 | 0.01 | 1014.2 | ||
| 20260501190924 | 0 | 0.0 | 0.0 | 0.00 | 0.13 | 0.01 | 1014.2 | ||
| 20260501190831 | 0 | 0.0 | 0.0 | 0.00 | 0.13 | 0.01 | 1014.3 | ||
| 20260501190728 | 0 | 0.0 | 0.0 | 0.00 | 0.13 | 0.01 | 1014.5 | ||
| 20260501190630 | 0 | 0.0 | 0.0 | 0.00 | 0.13 | 0.01 | 1014.7 | ||
| 20260501190513 | 0 | 0.0 | 0.0 | 0.00 | 0.13 | 0.01 | 1014.7 | ||
| 20260501190418 | 0 | 0.0 | 0.0 | 0.00 | 0.13 | 0.01 | 1014.7 | ||
| 20260501190320 | 0 | 0.0 | 0.0 | 0.00 | 0.13 | 0.01 | 1014.5 | ||
| 20260501190224 | 0 | 0.0 | 0.0 | 0.00 | 0.13 | 0.01 | 1014.5 | ||
| 20260501190132 | 0 | 0.0 | 0.0 | 0.00 | 0.13 | 0.01 | 1014.4 | ||
| 20260501190033 | 0 | 0.0 | 0.0 | 0.00 | 0.13 | 0.01 | 1014.2 | ||
| 20260501185914 | 0 | 0.0 | 0.0 | 0.00 | 0.13 | 0.01 | 1013.4 | ||
| 20260501185815 | 0 | 0.0 | 0.0 | 0.00 | 0.13 | 0.01 | 1013.2 | ||
| 20260501185717 | 0 | 0.0 | 0.0 | 0.00 | 1.03 | 0.01 | 1013.0 | ||
| 20260501185621 | 0 | 0.0 | 0.0 | 0.00 | 1.03 | 0.01 | 1012.9 | ||
| 20260501185522 | 0 | 0.0 | 0.0 | 0.00 | 1.03 | 0.01 | 1012.9 | ||
| 20260501185423 | 0 | 0.0 | 0.0 | 0.00 | 1.03 | 0.01 | 1012.8 | ||
| 20260501185346 | 0 | 0.0 | 0.0 | 0.00 | 1.03 | 0.01 | 1012.9 | ||
| 20260501185249 | 0 | 0.0 | 0.0 | 0.00 | 1.03 | 0.01 | 1012.9 | ||
| 20260501185135 | 0 | 0.0 | 0.0 | 0.00 | 1.03 | 0.01 | 1012.9 | ||
| 20260501185032 | 0 | 0.0 | 0.0 | 0.00 | 1.03 | 0.01 | 1012.7 | ||
| 20260501184920 | 0 | 0.0 | 0.0 | 0.00 | 1.03 | 0.01 | 1012.7 | ||
| 20260501184823 | 0 | 0.0 | 0.0 | 0.00 | 1.03 | 0.01 | 1012.7 | ||
| 20260501184726 | 0 | 0.0 | 0.0 | 0.00 | 1.03 | 0.01 | 1012.6 | ||
| 20260501184630 | 0 | 0.0 | 0.0 | 0.00 | 1.03 | 0.01 | 1012.6 | ||
| 20260501184537 | 0 | 0.0 | 0.0 | 0.00 | 1.03 | 0.01 | 1012.5 | ||
| 20260501184416 | 0 | 0.0 | 0.0 | 0.00 | 1.03 | 0.01 | 1012.5 | ||
| 20260501184339 | 0 | 0.0 | 0.0 | 0.00 | 1.03 | 0.01 | 1012.6 | ||
| 20260501184220 | 0 | 0.0 | 0.0 | 0.00 | 1.03 | 0.01 | 1012.6 | ||
| 20260501184123 | 0 | 0.0 | 0.0 | 0.00 | 1.03 | 0.01 | 1012.6 | ||
| 20260501184027 | 0 | 0.0 | 0.0 | 0.00 | 1.03 | 0.01 | 1012.7 | ||
| 20260501183930 | 0 | 0.0 | 0.0 | 0.00 | 1.03 | 0.01 | 1012.7 | ||
| 20260501183813 | 0 | 0.0 | 0.0 | 0.00 | 1.03 | 0.01 | 1012.7 | ||
| 20260501183720 | 0 | 0.0 | 0.0 | 0.00 | 1.03 | 0.01 | 1012.6 | ||
| 20260501183644 | 0 | 0.0 | 0.0 | 0.00 | 1.03 | 0.01 | 1012.6 | ||
| 20260501183526 | 0 | 0.0 | 0.0 | 0.00 | 1.03 | 0.01 | 1012.6 | ||
| 20260501183450 | 0 | 0.0 | 0.0 | 0.00 | 1.03 | 0.01 | 1012.5 | ||
| 20260501183332 | 0 | 0.0 | 0.0 | 0.00 | 1.03 | 0.01 | 1012.6 | ||
| 20260501183240 | 0 | 0.0 | 0.0 | 0.00 | 1.03 | 0.01 | 1012.8 | ||
| 20260501183139 | 0 | 0.0 | 0.0 | 0.00 | 1.03 | 0.01 | 1012.8 | ||
| 20260501183015 | 0 | 0.0 | 0.0 | 0.00 | 1.03 | 0.01 | 1013.1 | ||
| 20260501182921 | 0 | 0.0 | 0.0 | 0.00 | 1.03 | 0.01 | 1013.1 | ||
| 20260501182822 | 0 | 0.0 | 0.0 | 0.00 | 1.03 | 0.01 | 1013.1 | ||
| 20260501182747 | 0 | 0.0 | 0.0 | 0.00 | 1.03 | 0.01 | 1013.1 | ||
| 20260501182628 | 0 | 0.0 | 0.0 | 0.00 | 1.03 | 0.01 | 1013.1 | ||
| 20260501182551 | 0 | 0.0 | 0.0 | 0.00 | 1.03 | 0.01 | 1013.1 | ||
| 20260501182431 | 0 | 0.0 | 0.0 | 0.00 | 1.03 | 0.01 | 1012.9 | ||
| 20260501182314 | 0 | 0.0 | 0.0 | 0.00 | 1.03 | 0.01 | 1013.1 | ||
| 20260501182216 | 0 | 0.0 | 0.0 | 0.00 | 1.03 | 0.01 | 1013.3 | ||
| 20260501182120 | 0 | 0.0 | 0.0 | 0.00 | 1.03 | 0.01 | 1013.6 | ||
| 20260501182048 | 0 | 0.0 | 0.0 | 0.00 | 1.03 | 0.01 | 1013.6 | ||
| 20260501181929 | 0 | 0.0 | 0.0 | 0.00 | 1.03 | 0.01 | 1013.7 | ||
| 20260501181831 | 0 | 0.0 | 0.0 | 0.00 | 1.03 | 0.01 | 1014.1 | ||
| 20260501181713 | 0 | 0.0 | 0.0 | 0.00 | 1.03 | 0.01 | 1014.4 | ||
| 20260501181617 | 0 | 0.0 | 0.0 | 0.00 | 1.03 | 0.01 | 1014.6 | ||
| 20260501181540 | 0 | 0.0 | 0.0 | 0.00 | 1.03 | 0.01 | 1014.7 | ||
| 20260501181443 | 0 | 0.0 | 0.0 | 0.00 | 1.03 | 0.01 | 1014.7 | ||
| 20260501181345 | 0 | 0.0 | 0.0 | 0.00 | 1.03 | 0.01 | 1014.9 | ||
| 20260501181226 | 0 | 0.0 | 0.0 | 0.00 | 1.03 | 0.01 | 1014.9 | ||
| 20260501181113 | 0 | 0.0 | 0.0 | 0.00 | 1.03 | 0.01 | 1015.0 | ||
| 20260501181017 | 0 | 0.0 | 0.0 | 0.00 | 1.03 | 0.01 | 1015.2 | ||
| 20260501180919 | 0 | 0.0 | 0.0 | 0.00 | 1.03 | 0.01 | 1015.1 | ||
| 20260501180823 | 0 | 0.0 | 0.0 | 0.00 | 1.03 | 0.01 | 1015.1 | ||
| 20260501180726 | 0 | 0.0 | 0.0 | 0.00 | 1.03 | 0.01 | 1015.3 | ||
| 20260501180629 | 0 | 0.0 | 0.0 | 0.00 | 1.03 | 0.01 | 1015.4 | ||
| 20260501180536 | 0 | 0.0 | 0.0 | 0.00 | 1.03 | 0.01 | 1015.6 | ||
| 20260501180413 | 0 | 0.0 | 0.0 | 0.00 | 1.03 | 0.01 | 1015.8 | ||
| 20260501180337 | 0 | 0.0 | 0.0 | 0.00 | 1.03 | 0.01 | 1015.8 | ||
| 20260501180217 | 0 | 0.0 | 0.0 | 0.00 | 1.03 | 0.01 | 1015.9 | ||
| 20260501180121 | 0 | 0.0 | 0.0 | 0.00 | 1.03 | 0.01 | 1016.0 | ||
| 20260501180045 | 0 | 0.0 | 0.0 | 0.00 | 1.03 | 0.01 | 1016.0 | ||
| 20260501175947 | 0 | 0.0 | 0.0 | 0.00 | 1.03 | 0.01 | 1016.1 | ||
| 20260501175831 | 0 | 0.0 | 0.0 | 0.00 | 1.03 | 0.01 | 1016.1 | ||
| 20260501175716 | 0 | 0.0 | 0.0 | 0.00 | 1.03 | 0.01 | 1016.2 | ||
| 20260501175619 | 0 | 0.0 | 0.0 | 0.00 | 1.03 | 0.01 | 1016.2 | ||
| 20260501175523 | 0 | 0.0 | 0.0 | 0.00 | 1.03 | 0.01 | 1016.2 | ||
| 20260501175447 | 0 | 0.0 | 0.0 | 0.00 | 1.03 | 0.01 | 1016.2 | ||
| 20260501175329 | 0 | 0.0 | 0.0 | 0.00 | 1.03 | 0.01 | 1016.1 | ||
| 20260501175233 | 0 | 0.0 | 0.0 | 0.00 | 1.03 | 0.01 | 1016.1 | ||
| 20260501175116 | 0 | 0.0 | 0.0 | 0.00 | 1.03 | 0.01 | 1015.7 | ||
| 20260501175024 | 0 | 0.0 | 0.0 | 0.00 | 1.03 | 0.01 | 1015.7 | ||
| 20260501174928 | 0 | 0.0 | 0.0 | 0.00 | 1.03 | 0.01 | 1015.6 | ||
| 20260501174831 | 0 | 0.0 | 0.0 | 0.00 | 1.03 | 0.01 | 1015.4 | ||
| 20260501174735 | 0 | 0.0 | 0.0 | 0.00 | 1.03 | 0.01 | 1015.2 | ||
| 20260501174615 | 0 | 0.0 | 0.0 | 0.00 | 1.03 | 0.01 | 1015.1 | ||
| 20260501174539 | 0 | 0.0 | 0.0 | 0.00 | 1.03 | 0.01 | 1014.9 | ||
| 20260501174421 | 0 | 0.0 | 0.0 | 0.00 | 1.03 | 0.01 | 1014.8 | ||
| 20260501174323 | 0 | 0.0 | 0.0 | 0.00 | 1.03 | 0.01 | 1014.8 | ||
| 20260501174251 | 0 | 0.0 | 0.0 | 0.00 | 1.03 | 0.01 | 1014.7 | ||
| 20260501174132 | 0 | 0.0 | 0.0 | 0.00 | 1.03 | 0.01 | 1014.5 | ||
| 20260501174036 | 0 | 0.0 | 0.0 | 0.00 | 1.03 | 0.01 | 1014.1 | ||
| 20260501173938 | 0 | 0.0 | 0.0 | 0.00 | 1.03 | 0.01 | 1014.1 | ||
| 20260501173815 | 0 | 0.0 | 0.0 | 0.00 | 1.03 | 0.01 | 1013.7 | ||
| 20260501173738 | 0 | 0.0 | 0.0 | 0.00 | 1.03 | 0.01 | 1013.7 | ||
| 20260501173614 | 0 | 0.0 | 0.0 | 0.00 | 1.03 | 0.01 | 1013.5 | ||
| 20260501173541 | 0 | 0.0 | 0.0 | 0.00 | 1.03 | 0.01 | 1013.6 | ||
| 20260501173424 | 0 | 0.0 | 0.0 | 0.00 | 1.03 | 0.01 | 1013.6 | ||
| 20260501173327 | 0 | 0.0 | 0.0 | 0.00 | 1.03 | 0.01 | 1013.7 | ||
| 20260501173231 | 0 | 0.0 | 0.0 | 0.00 | 1.03 | 0.01 | 1013.7 | ||
| 20260501173136 | 0 | 0.0 | 0.0 | 0.00 | 1.03 | 0.01 | 1013.7 | ||
| 20260501173018 | 0 | 0.0 | 0.0 | 0.00 | 1.03 | 0.01 | 1013.8 | ||
| 20260501172921 | 0 | 0.0 | 0.0 | 0.00 | 1.03 | 0.01 | 1013.8 | ||
| 20260501172828 | 0 | 0.0 | 0.0 | 0.00 | 1.03 | 0.01 | 1013.8 | ||
| 20260501172733 | 0 | 0.0 | 0.0 | 0.00 | 1.03 | 0.01 | 1013.9 | ||
| 20260501172538 | 0 | 0.0 | 0.0 | 0.00 | 1.03 | 0.01 | 1013.9 | ||
| 20260501172414 | 0 | 0.0 | 0.0 | 0.00 | 1.03 | 0.01 | 1013.8 | ||
| 20260501172317 | 0 | 0.0 | 0.0 | 0.00 | 1.03 | 0.01 | 1013.7 | ||
| 20260501172222 | 0 | 0.0 | 0.0 | 0.00 | 1.03 | 0.01 | 1013.7 | ||
| 20260501172046 | 0 | 0.0 | 0.0 | 0.00 | 1.03 | 0.01 | 1013.5 | ||
| 20260501171928 | 0 | 0.0 | 0.0 | 0.00 | 1.03 | 0.01 | 1013.6 | ||
| 20260501171852 | 0 | 0.0 | 0.0 | 0.00 | 1.03 | 0.01 | 1013.4 | ||
| 20260501171716 | 0 | 0.0 | 0.0 | 0.00 | 1.03 | 0.01 | 1013.6 | ||
| 20260501171639 | 0 | 0.0 | 0.0 | 0.00 | 1.03 | 0.01 | 1013.7 | ||
| 20260501171522 | 0 | 0.0 | 0.0 | 0.00 | 1.03 | 0.01 | 1013.7 | ||
| 20260501171430 | 0 | 0.0 | 0.0 | 0.00 | 1.03 | 0.01 | 1013.9 | ||
| 20260501171315 | 0 | 0.0 | 0.0 | 0.00 | 1.03 | 0.01 | 1014.0 | ||
| 20260501171217 | 0 | 0.0 | 0.0 | 0.00 | 1.03 | 0.01 | 1014.0 | ||
| 20260501171120 | 0 | 0.0 | 0.0 | 0.00 | 1.03 | 0.01 | 1013.8 | ||
| 20260501171025 | 0 | 0.0 | 0.0 | 0.00 | 1.03 | 0.01 | 1013.8 | ||
| 20260501170924 | 0 | 0.0 | 0.0 | 0.00 | 1.03 | 0.01 | 1013.8 | ||
| 20260501170849 | 0 | 0.0 | 0.0 | 0.00 | 1.03 | 0.01 | 1013.8 | ||
| 20260501170741 | 0 | 0.0 | 0.0 | 0.00 | 1.03 | 0.01 | 1013.8 | ||
| 20260501170643 | 0 | 0.0 | 0.0 | 0.00 | 1.03 | 0.01 | 1013.8 | ||
| 20260501170524 | 0 | 0.0 | 0.0 | 0.00 | 1.03 | 0.01 | 1013.7 | ||
| 20260501170425 | 0 | 0.0 | 0.0 | 0.00 | 1.03 | 0.01 | 1013.7 | ||
| 20260501170328 | 0 | 0.0 | 0.0 | 0.00 | 1.03 | 0.01 | 1013.7 | ||
| 20260501170251 | 0 | 0.0 | 0.0 | 0.00 | 1.03 | 0.01 | 1013.7 | ||
| 20260501170113 | 0 | 0.0 | 0.0 | 0.00 | 1.03 | 0.01 | 1013.6 | ||
| 20260501170018 | 0 | 0.0 | 0.0 | 0.00 | 1.03 | 0.01 | 1013.7 |